Observation data for Lomax on 02/14/2020      Previous  Date  Next       Current Mesonet Observations  Soil Data  Daily Summary Page  Observations in Plain Language
KLO1 140600Z 11014KT M00/M01 A3031 RMK A01 T10011014  RH  091%=      5-min Rain = 0
KLO1 140601Z 11012KT 00/01 A3031 RMK A01 T00-00-14  RH  091%=      5-min Rain = 0
KLO1 140602Z 11012KT 00/01 A3031 RMK A01 T00-00-13  RH  091%=      5-min Rain = 0
KLO1 140603Z 10014KT M00/M01 A3031 RMK A01 T10011014  RH  091%=      5-min Rain = 0
KLO1 140604Z 10014KT 00/01 A3031 RMK A01 T00-00-13  RH  091%=      5-min Rain = 0
KLO1 140605Z 10015KT M00/M01 A3032 RMK A01 T10011014  RH  091%=      5-min Rain = 0
KLO1 140606Z 10014KT M00/M02 A3032 RMK A01 T10011015  RH  091%=      5-min Rain = 0
KLO1 140607Z 10012KT M00/M02 A3032 RMK A01 T10011015  RH  091%=      5-min Rain = 0
KLO1 140608Z 10012KT M00/M02 A3032 RMK A01 T10021015  RH  091%=      5-min Rain = 0
KLO1 140609Z 10012KT M00/M01 A3032 RMK A01 T10011014  RH  091%=      5-min Rain = 0
KLO1 140610Z 10013KT M00/M01 A3032 RMK A01 T10011014  RH  091%=      5-min Rain = 0
KLO1 140611Z 10013KT M00/M01 A3032 RMK A01 T10011014  RH  091%=      5-min Rain = 0
KLO1 140612Z 11012KT M00/M01 A3032 RMK A01 T10011014  RH  091%=      5-min Rain = 0
KLO1 140613Z 10009KT M00/M01 A3032 RMK A01 T10011014  RH  091%=      5-min Rain = 0
KLO1 140614Z 10012KT M00/M01 A3032 RMK A01 T10011014  RH  091%=      5-min Rain = 0
KLO1 140615Z 10013KT M00/M01 A3032 RMK A01 T10011014  RH  091%=      5-min Rain = 0
KLO1 140616Z 09012KT M00/M01 A3032 RMK A01 T10011014  RH  091%=      5-min Rain = 0
KLO1 140617Z 10012KT M00/M01 A3032 RMK A01 T10011014  RH  091%=      5-min Rain = 0
KLO1 140618Z 10012KT M00/M01 A3031 RMK A01 T10011014  RH  091%=      5-min Rain = 0
KLO1 140619Z 10013KT M00/M01 A3032 RMK A01 T10011014  RH  091%=      5-min Rain = 0
KLO1 140620Z 10011KT M00/M01 A3031 RMK A01 T10011014  RH  091%=      5-min Rain = 0
KLO1 140621Z 09011KT M00/M01 A3031 RMK A01 T10011014  RH  091%=      5-min Rain = 0
KLO1 140622Z 09012KT 00/01 A3031 RMK A01 T00-00-13  RH  091%=      5-min Rain = 0
KLO1 140623Z 10012KT 00/01 A3031 RMK A01 T00-00-13  RH  091%=      5-min Rain = 0
KLO1 140624Z 10011KT 00/01 A3031 RMK A01 T00-00-13  RH  091%=      5-min Rain = 0
KLO1 140625Z 10011KT 00/01 A3031 RMK A01 T00-00-13  RH  091%=      5-min Rain = 0
KLO1 140626Z 10010KT 00/01 A3031 RMK A01 T00-00-13  RH  091%=      5-min Rain = 0
KLO1 140627Z 10011KT 00/01 A3031 RMK A01 T00-00-13  RH  091%=      5-min Rain = 0
KLO1 140628Z 11010KT 00/01 A3031 RMK A01 T00000-13  RH  091%=      5-min Rain = 0
KLO1 140629Z 11010KT 00/01 A3031 RMK A01 T00000-13  RH  091%=      5-min Rain = 0
KLO1 140630Z 11011KT 00/01 A3031 RMK A01 T00000-13  RH  091%=      5-min Rain = 0
KLO1 140631Z 11009KT 00/01 A3031 RMK A01 T00000-13  RH  091%=      5-min Rain = 0
KLO1 140632Z 10009KT 00/01 A3031 RMK A01 T00000-13  RH  091%=      5-min Rain = 0
KLO1 140633Z 10008KT 00/01 A3031 RMK A01 T00000-13  RH  091%=      5-min Rain = 0
KLO1 140634Z 10008KT 00/01 A3031 RMK A01 T00000-13  RH  091%=      5-min Rain = 0
KLO1 140635Z 10009KT 00/M01 A3031 RMK A01 T00011012  RH  091%=      5-min Rain = 0
KLO1 140636Z 10009KT 00/M01 A3031 RMK A01 T00011012  RH  091%=      5-min Rain = 0
KLO1 140637Z 10009KT 00/M01 A3031 RMK A01 T00011012  RH  091%=      5-min Rain = 0
KLO1 140638Z 10009KT 00/M01 A3031 RMK A01 T00011012  RH  091%=      5-min Rain = 0
KLO1 140639Z 11008KT 00/M01 A3031 RMK A01 T00011012  RH  091%=      5-min Rain = 0
KLO1 140640Z 11008KT 00/M01 A3031 RMK A01 T00011012  RH  091%=      5-min Rain = 0
KLO1 140641Z 11007KT 00/M01 A3031 RMK A01 T00011012  RH  091%=      5-min Rain = 0
KLO1 140642Z 11007KT 00/M01 A3031 RMK A01 T00011012  RH  091%=      5-min Rain = 0
KLO1 140643Z 11008KT 00/M01 A3031 RMK A01 T00011012  RH  091%=      5-min Rain = 0
KLO1 140644Z 11007KT 00/M01 A3031 RMK A01 T00011012  RH  091%=      5-min Rain = 0
KLO1 140645Z 11006KT 00/M01 A3031 RMK A01 T00011012  RH  091%=      5-min Rain = 0
KLO1 140646Z 11006KT 00/M01 A3031 RMK A01 T00011012  RH  091%=      5-min Rain = 0
KLO1 140647Z 12006KT 00/M01 A3031 RMK A01 T00021012  RH  091%=      5-min Rain = 0
KLO1 140648Z 12006KT 00/M01 A3031 RMK A01 T00011012  RH  091%=      5-min Rain = 0
KLO1 140649Z 12007KT 00/M01 A3031 RMK A01 T00011012  RH  091%=      5-min Rain = 0
KLO1 140650Z 12007KT 00/M01 A3031 RMK A01 T00011013  RH  091%=      5-min Rain = 0
KLO1 140651Z 13006KT 00/M01 A3031 RMK A01 T00011013  RH  090%=      5-min Rain = 0
KLO1 140652Z 13007KT 00/01 A3031 RMK A01 T00000-14  RH  090%=      5-min Rain = 0
KLO1 140653Z 13007KT 00/01 A3031 RMK A01 T00000-14  RH  090%=      5-min Rain = 0
KLO1 140654Z 13008KT 00/02 A3031 RMK A01 T00-00-15  RH  090%=      5-min Rain = 0
KLO1 140655Z 13008KT M00/M02 A3031 RMK A01 T10011016  RH  090%=      5-min Rain = 0
KLO1 140656Z 13008KT M00/M02 A3031 RMK A01 T10011016  RH  090%=      5-min Rain = 0
KLO1 140657Z 13007KT M00/M02 A3031 RMK A01 T10021016  RH  090%=      5-min Rain = 0
KLO1 140658Z 12007KT M00/M02 A3031 RMK A01 T10021017  RH  090%=      5-min Rain = 0
KLO1 140659Z 12007KT M00/M02 A3031 RMK A01 T10021017  RH  090%=      5-min Rain = 0
KLO1 140700Z 12007KT M00/M02 A3031 RMK A01 T10031018  RH  090%=      5-min Rain = 0
KLO1 140701Z 12008KT M00/M02 A3031 RMK A01 T10031018  RH  090%=      5-min Rain = 0
KLO1 140702Z 12007KT M00/M02 A3032 RMK A01 T10031018  RH  090%=      5-min Rain = 0
KLO1 140703Z 12007KT M00/M02 A3032 RMK A01 T10031019  RH  090%=      5-min Rain = 0
KLO1 140704Z 12008KT M00/M02 A3032 RMK A01 T10041019  RH  090%=      5-min Rain = 0
KLO1 140705Z 12007KT M00/M02 A3032 RMK A01 T10041019  RH  090%=      5-min Rain = 0
KLO1 140706Z 12008KT M00/M02 A3032 RMK A01 T10041019  RH  089%=      5-min Rain = 0
KLO1 140707Z 12008KT M00/M02 A3032 RMK A01 T10041020  RH  089%=      5-min Rain = 0
KLO1 140708Z 12008KT M00/M02 A3032 RMK A01 T10041020  RH  089%=      5-min Rain = 0
KLO1 140709Z 12008KT M01/M02 A3032 RMK A01 T10051020  RH  089%=      5-min Rain = 0
KLO1 140710Z 11008KT M01/M02 A3032 RMK A01 T10051020  RH  089%=      5-min Rain = 0
KLO1 140711Z 12009KT M01/M02 A3032 RMK A01 T10051021  RH  089%=      5-min Rain = 0
KLO1 140712Z 11008KT M01/M02 A3032 RMK A01 T10051021  RH  089%=      5-min Rain = 0
KLO1 140713Z 11009KT M01/M02 A3032 RMK A01 T10051021  RH  089%=      5-min Rain = 0
KLO1 140714Z 11009KT M01/M02 A3032 RMK A01 T10051021  RH  089%=      5-min Rain = 0
KLO1 140715Z 11009KT M01/M02 A3032 RMK A01 T10051021  RH  089%=      5-min Rain = 0
KLO1 140716Z 11009KT M01/M02 A3032 RMK A01 T10051021  RH  089%=      5-min Rain = 0
KLO1 140717Z 11009KT M01/M02 A3032 RMK A01 T10051021  RH  089%=      5-min Rain = 0
KLO1 140718Z 11009KT M01/M02 A3032 RMK A01 T10051021  RH  089%=      5-min Rain = 0
KLO1 140719Z 10007KT M01/M02 A3032 RMK A01 T10051021  RH  089%=      5-min Rain = 0
KLO1 140720Z 10008KT M01/M02 A3032 RMK A01 T10061022  RH  089%=      5-min Rain = 0
KLO1 140721Z 10008KT M01/M02 A3032 RMK A01 T10061022  RH  089%=      5-min Rain = 0
KLO1 140722Z 10007KT M01/M02 A3032 RMK A01 T10061022  RH  089%=      5-min Rain = 0
KLO1 140723Z 10007KT M01/M02 A3032 RMK A01 T10061022  RH  089%=      5-min Rain = 0
KLO1 140724Z 10006KT M01/M02 A3032 RMK A01 T10061022  RH  089%=      5-min Rain = 0
KLO1 140725Z 11007KT M01/M02 A3032 RMK A01 T10061023  RH  089%=      5-min Rain = 0
KLO1 140726Z 10008KT M01/M02 A3031 RMK A01 T10061023  RH  089%=      5-min Rain = 0
KLO1 140727Z 11007KT M01/M02 A3031 RMK A01 T10071023  RH  089%=      5-min Rain = 0
KLO1 140728Z 11007KT M01/M02 A3031 RMK A01 T10061023  RH  089%=      5-min Rain = 0
KLO1 140729Z 11006KT M01/M02 A3032 RMK A01 T10071023  RH  089%=      5-min Rain = 0
KLO1 140730Z 11007KT M01/M02 A3032 RMK A01 T10071023  RH  089%=      5-min Rain = 0
KLO1 140731Z 10007KT M01/M02 A3032 RMK A01 T10071024  RH  089%=      5-min Rain = 0
KLO1 140732Z 11006KT M01/M02 A3032 RMK A01 T10081024  RH  089%=      5-min Rain = 0
KLO1 140733Z 10007KT M01/M02 A3032 RMK A01 T10071023  RH  089%=      5-min Rain = 0
KLO1 140734Z 10006KT M01/M02 A3032 RMK A01 T10071023  RH  089%=      5-min Rain = 0
KLO1 140735Z 10006KT M01/M02 A3032 RMK A01 T10081024  RH  089%=      5-min Rain = 0
KLO1 140736Z 10005KT M01/M02 A3032 RMK A01 T10081024  RH  089%=      5-min Rain = 0
KLO1 140737Z 10005KT M01/M02 A3032 RMK A01 T10081024  RH  089%=      5-min Rain = 0
KLO1 140738Z 10005KT M01/M02 A3032 RMK A01 T10091024  RH  089%=      5-min Rain = 0
KLO1 140739Z 10005KT M01/M02 A3032 RMK A01 T10091024  RH  089%=      5-min Rain = 0
KLO1 140740Z 10006KT M01/M03 A3032 RMK A01 T10091025  RH  089%=      5-min Rain = 0
KLO1 140741Z 11004KT M01/M03 A3032 RMK A01 T10091025  RH  089%=      5-min Rain = 0
KLO1 140742Z 11004KT M01/M03 A3032 RMK A01 T10101025  RH  089%=      5-min Rain = 0
KLO1 140743Z 11004KT M01/M03 A3032 RMK A01 T10101025  RH  089%=      5-min Rain = 0
KLO1 140744Z 10004KT M01/M03 A3032 RMK A01 T10101025  RH  090%=      5-min Rain = 0
KLO1 140745Z 10004KT M01/M03 A3032 RMK A01 T10101025  RH  090%=      5-min Rain = 0
KLO1 140746Z 11004KT M01/M03 A3032 RMK A01 T10111025  RH  090%=      5-min Rain = 0
KLO1 140747Z 10004KT M01/M03 A3032 RMK A01 T10111026  RH  090%=      5-min Rain = 0
KLO1 140748Z 10004KT M01/M03 A3032 RMK A01 T10111026  RH  090%=      5-min Rain = 0
KLO1 140749Z 09004KT M01/M03 A3032 RMK A01 T10121026  RH  090%=      5-min Rain = 0
KLO1 140750Z 10004KT M01/M03 A3032 RMK A01 T10121026  RH  090%=      5-min Rain = 0
KLO1 140751Z 09004KT M01/M03 A3032 RMK A01 T10121027  RH  090%=      5-min Rain = 0
KLO1 140752Z 08004KT M01/M03 A3032 RMK A01 T10131027  RH  090%=      5-min Rain = 0
KLO1 140753Z 08003KT M01/M03 A3032 RMK A01 T10131028  RH  090%=      5-min Rain = 0
KLO1 140754Z 08004KT M01/M03 A3032 RMK A01 T10141028  RH  090%=      5-min Rain = 0
KLO1 140755Z 09004KT M01/M03 A3032 RMK A01 T10141028  RH  090%=      5-min Rain = 0
KLO1 140756Z 09004KT M01/M03 A3032 RMK A01 T10141028  RH  090%=      5-min Rain = 0
KLO1 140757Z 09004KT M01/M03 A3032 RMK A01 T10141028  RH  090%=      5-min Rain = 0
KLO1 140758Z 09004KT M01/M03 A3032 RMK A01 T10141028  RH  090%=      5-min Rain = 0
KLO1 140759Z 10004KT M01/M03 A3032 RMK A01 T10141027  RH  091%=      5-min Rain = 0
KLO1 140800Z 10005KT M01/M03 A3032 RMK A01 T10141027  RH  091%=      5-min Rain = 0
KLO1 140801Z 10005KT M01/M03 A3032 RMK A01 T10141027  RH  091%=      5-min Rain = 0
KLO1 140802Z 10005KT M01/M03 A3032 RMK A01 T10141027  RH  091%=      5-min Rain = 0
KLO1 140803Z 10004KT M01/M03 A3032 RMK A01 T10141027  RH  091%=      5-min Rain = 0
KLO1 140804Z 10004KT M01/M03 A3032 RMK A01 T10141027  RH  091%=      5-min Rain = 0
KLO1 140805Z 09004KT M01/M03 A3032 RMK A01 T10141027  RH  091%=      5-min Rain = 0
KLO1 140806Z 09005KT M01/M03 A3032 RMK A01 T10141027  RH  091%=      5-min Rain = 0
KLO1 140807Z 09005KT M01/M03 A3032 RMK A01 T10141027  RH  091%=      5-min Rain = 0
KLO1 140808Z 09005KT M01/M03 A3032 RMK A01 T10141027  RH  091%=      5-min Rain = 0
KLO1 140809Z 09005KT M01/M03 A3032 RMK A01 T10141027  RH  091%=      5-min Rain = 0
KLO1 140810Z 09005KT M01/M03 A3032 RMK A01 T10141027  RH  091%=      5-min Rain = 0
KLO1 140811Z 09006KT M01/M03 A3032 RMK A01 T10141027  RH  091%=      5-min Rain = 0
KLO1 140812Z 10006KT M01/M03 A3032 RMK A01 T10141027  RH  091%=      5-min Rain = 0
KLO1 140813Z 10006KT M01/M03 A3032 RMK A01 T10141027  RH  091%=      5-min Rain = 0
KLO1 140814Z 10005KT M01/M03 A3032 RMK A01 T10141027  RH  091%=      5-min Rain = 0
KLO1 140815Z 10006KT M01/M03 A3032 RMK A01 T10141027  RH  091%=      5-min Rain = 0
KLO1 140816Z 10005KT M01/M03 A3032 RMK A01 T10141027  RH  091%=      5-min Rain = 0
KLO1 140817Z 10005KT M01/M03 A3032 RMK A01 T10141027  RH  091%=      5-min Rain = 0
KLO1 140818Z 10005KT M01/M03 A3032 RMK A01 T10141027  RH  091%=      5-min Rain = 0
KLO1 140819Z 10005KT M01/M03 A3032 RMK A01 T10141027  RH  091%=      5-min Rain = 0
KLO1 140820Z 10005KT M01/M03 A3032 RMK A01 T10141027  RH  091%=      5-min Rain = 0
KLO1 140821Z 10006KT M01/M03 A3032 RMK A01 T10141027  RH  091%=      5-min Rain = 0
KLO1 140822Z 09005KT M01/M03 A3032 RMK A01 T10141027  RH  091%=      5-min Rain = 0
KLO1 140823Z 09005KT M01/M03 A3032 RMK A01 T10141027  RH  091%=      5-min Rain = 0
KLO1 140824Z 08005KT M01/M03 A3032 RMK A01 T10141027  RH  091%=      5-min Rain = 0
KLO1 140825Z 08005KT M02/M03 A3032 RMK A01 T10151028  RH  091%=      5-min Rain = 0
KLO1 140826Z 08005KT M02/M03 A3032 RMK A01 T10151028  RH  091%=      5-min Rain = 0
KLO1 140827Z 08005KT M02/M03 A3032 RMK A01 T10151028  RH  091%=      5-min Rain = 0
KLO1 140828Z 08004KT M02/M03 A3032 RMK A01 T10151028  RH  091%=      5-min Rain = 0
KLO1 140829Z 08005KT M02/M03 A3032 RMK A01 T10161029  RH  091%=      5-min Rain = 0
KLO1 140830Z 09004KT M02/M03 A3032 RMK A01 T10161029  RH  091%=      5-min Rain = 0
KLO1 140831Z 10004KT M02/M03 A3032 RMK A01 T10161029  RH  091%=      5-min Rain = 0
KLO1 140832Z 10004KT M02/M03 A3032 RMK A01 T10161029  RH  091%=      5-min Rain = 0
KLO1 140833Z 10004KT M02/M03 A3031 RMK A01 T10161029  RH  091%=      5-min Rain = 0
KLO1 140834Z 10005KT M02/M03 A3031 RMK A01 T10151028  RH  091%=      5-min Rain = 0
KLO1 140835Z 10005KT M02/M03 A3031 RMK A01 T10161029  RH  091%=      5-min Rain = 0
KLO1 140836Z 10005KT M02/M03 A3031 RMK A01 T10161028  RH  091%=      5-min Rain = 0
KLO1 140837Z 10005KT M02/M03 A3031 RMK A01 T10161029  RH  091%=      5-min Rain = 0
KLO1 140838Z 10005KT M02/M03 A3031 RMK A01 T10161029  RH  091%=      5-min Rain = 0
KLO1 140839Z 11005KT M02/M03 A3031 RMK A01 T10161029  RH  091%=      5-min Rain = 0
KLO1 140840Z 11004KT M02/M03 A3031 RMK A01 T10161029  RH  091%=      5-min Rain = 0
KLO1 140841Z 11004KT M02/M03 A3031 RMK A01 T10161029  RH  091%=      5-min Rain = 0
KLO1 140842Z 11004KT M02/M03 A3031 RMK A01 T10171029  RH  091%=      5-min Rain = 0
KLO1 140843Z 10004KT M02/M03 A3032 RMK A01 T10171029  RH  091%=      5-min Rain = 0
KLO1 140844Z 10004KT M02/M03 A3032 RMK A01 T10161029  RH  091%=      5-min Rain = 0
KLO1 140845Z 10004KT M02/M03 A3032 RMK A01 T10171029  RH  091%=      5-min Rain = 0
KLO1 140846Z 11004KT M02/M03 A3032 RMK A01 T10171030  RH  091%=      5-min Rain = 0
KLO1 140847Z 11004KT M02/M03 A3032 RMK A01 T10171030  RH  091%=      5-min Rain = 0
KLO1 140848Z 11004KT M02/M03 A3031 RMK A01 T10171030  RH  091%=      5-min Rain = 0
KLO1 140849Z 11004KT M02/M03 A3031 RMK A01 T10171030  RH  091%=      5-min Rain = 0
KLO1 140850Z 11004KT M02/M03 A3031 RMK A01 T10181030  RH  091%=      5-min Rain = 0
KLO1 140851Z 12003KT M02/M03 A3031 RMK A01 T10171030  RH  091%=      5-min Rain = 0
KLO1 140852Z 12003KT M02/M03 A3031 RMK A01 T10181030  RH  091%=      5-min Rain = 0
KLO1 140853Z 13003KT M02/M03 A3031 RMK A01 T10181031  RH  091%=      5-min Rain = 0
KLO1 140854Z 13003KT M02/M03 A3031 RMK A01 T10181031  RH  091%=      5-min Rain = 0
KLO1 140855Z 13003KT M02/M03 A3031 RMK A01 T10191031  RH  091%=      5-min Rain = 0
KLO1 140856Z 13003KT M02/M03 A3031 RMK A01 T10191031  RH  091%=      5-min Rain = 0
KLO1 140857Z 13002KT M02/M03 A3031 RMK A01 T10191032  RH  091%=      5-min Rain = 0
KLO1 140858Z 13002KT M02/M03 A3031 RMK A01 T10201032  RH  091%=      5-min Rain = 0
KLO1 140859Z 13002KT M02/M03 A3031 RMK A01 T10201032  RH  091%=      5-min Rain = 0
KLO1 140900Z 13002KT M02/M03 A3031 RMK A01 T10211033  RH  091%=      5-min Rain = 0
KLO1 140901Z 13001KT M02/M03 A3031 RMK A01 T10211033  RH  091%=      5-min Rain = 0
KLO1 140902Z 13001KT M02/M03 A3031 RMK A01 T10211033  RH  091%=      5-min Rain = 0
KLO1 140903Z 13001KT M02/M03 A3031 RMK A01 T10211034  RH  091%=      5-min Rain = 0
KLO1 140904Z 13001KT M02/M03 A3031 RMK A01 T10221034  RH  091%=      5-min Rain = 0
KLO1 140905Z 13001KT M02/M03 A3031 RMK A01 T10221034  RH  091%=      5-min Rain = 0
KLO1 140906Z 13001KT M02/M03 A3031 RMK A01 T10221034  RH  091%=      5-min Rain = 0
KLO1 140907Z 13001KT M02/M04 A3031 RMK A01 T10221035  RH  091%=      5-min Rain = 0
KLO1 140908Z 13001KT M02/M04 A3031 RMK A01 T10231035  RH  091%=      5-min Rain = 0
KLO1 140909Z 13001KT M02/M04 A3031 RMK A01 T10231035  RH  091%=      5-min Rain = 0
KLO1 140910Z 13000KT M02/M04 A3031 RMK A01 T10231036  RH  091%=      5-min Rain = 0
KLO1 140911Z 00000KT M02/M04 A3031 RMK A01 T10241036  RH  091%=      5-min Rain = 0
KLO1 140912Z 00000KT M02/M04 A3031 RMK A01 T10241036  RH  091%=      5-min Rain = 0
KLO1 140913Z 00000KT M02/M04 A3031 RMK A01 T10241036  RH  091%=      5-min Rain = 0
KLO1 140914Z 00000KT M02/M04 A3031 RMK A01 T10241036  RH  091%=      5-min Rain = 0
KLO1 140915Z 00000KT M02/M04 A3031 RMK A01 T10241035  RH  092%=      5-min Rain = 0
KLO1 140916Z 00000KT M02/M03 A3031 RMK A01 T10231034  RH  092%=      5-min Rain = 0
KLO1 140917Z 00000KT M02/M03 A3031 RMK A01 T10221034  RH  092%=      5-min Rain = 0
KLO1 140918Z 00000KT M02/M03 A3031 RMK A01 T10221033  RH  092%=      5-min Rain = 0
KLO1 140919Z 00000KT M02/M03 A3031 RMK A01 T10211033  RH  092%=      5-min Rain = 0
KLO1 140920Z 00000KT M02/M03 A3031 RMK A01 T10211032  RH  092%=      5-min Rain = 0
KLO1 140921Z 00000KT M02/M03 A3031 RMK A01 T10211032  RH  092%=      5-min Rain = 0
KLO1 140922Z 00000KT M02/M03 A3031 RMK A01 T10201031  RH  092%=      5-min Rain = 0
KLO1 140923Z 00000KT M02/M03 A3031 RMK A01 T10201031  RH  092%=      5-min Rain = 0
KLO1 140924Z 00000KT M02/M03 A3031 RMK A01 T10201031  RH  092%=      5-min Rain = 0
KLO1 140925Z 00000KT M02/M03 A3031 RMK A01 T10201031  RH  092%=      5-min Rain = 0
KLO1 140926Z 00000KT M02/M03 A3031 RMK A01 T10201031  RH  092%=      5-min Rain = 0
KLO1 140927Z 00000KT M02/M03 A3031 RMK A01 T10201031  RH  092%=      5-min Rain = 0
KLO1 140928Z 00000KT M02/M03 A3031 RMK A01 T10191030  RH  092%=      5-min Rain = 0
KLO1 140929Z 04000KT M02/M03 A3031 RMK A01 T10191030  RH  092%=      5-min Rain = 0
KLO1 140930Z 04001KT M02/M03 A3031 RMK A01 T10191030  RH  092%=      5-min Rain = 0
KLO1 140931Z 02001KT M02/M03 A3031 RMK A01 T10191030  RH  092%=      5-min Rain = 0
KLO1 140932Z 02001KT M02/M03 A3031 RMK A01 T10191030  RH  092%=      5-min Rain = 0
KLO1 140933Z 02001KT M02/M03 A3031 RMK A01 T10191030  RH  092%=      5-min Rain = 0
KLO1 140934Z 03002KT M02/M03 A3031 RMK A01 T10191030  RH  092%=      5-min Rain = 0
KLO1 140935Z 03002KT M02/M03 A3031 RMK A01 T10191031  RH  092%=      5-min Rain = 0
KLO1 140936Z 03002KT M02/M03 A3032 RMK A01 T10201031  RH  092%=      5-min Rain = 0
KLO1 140937Z 03002KT M02/M03 A3032 RMK A01 T10201031  RH  092%=      5-min Rain = 0
KLO1 140938Z 03002KT M02/M03 A3032 RMK A01 T10201032  RH  092%=      5-min Rain = 0
KLO1 140939Z 03002KT M02/M03 A3032 RMK A01 T10201031  RH  092%=      5-min Rain = 0
KLO1 140940Z 04002KT M02/M03 A3032 RMK A01 T10201031  RH  092%=      5-min Rain = 0
KLO1 140941Z 04002KT M02/M03 A3032 RMK A01 T10201031  RH  092%=      5-min Rain = 0
KLO1 140942Z 04002KT M02/M03 A3032 RMK A01 T10201032  RH  092%=      5-min Rain = 0
KLO1 140943Z 05002KT M02/M03 A3032 RMK A01 T10201032  RH  092%=      5-min Rain = 0
KLO1 140944Z 04002KT M02/M03 A3032 RMK A01 T10201031  RH  092%=      5-min Rain = 0
KLO1 140945Z 04002KT M02/M03 A3032 RMK A01 T10201031  RH  092%=      5-min Rain = 0
KLO1 140946Z 03002KT M02/M03 A3032 RMK A01 T10201031  RH  092%=      5-min Rain = 0
KLO1 140947Z 03002KT M02/M03 A3032 RMK A01 T10191030  RH  092%=      5-min Rain = 0
KLO1 140948Z 03002KT M02/M03 A3032 RMK A01 T10191030  RH  092%=      5-min Rain = 0
KLO1 140949Z 03002KT M02/M03 A3032 RMK A01 T10191030  RH  092%=      5-min Rain = 0
KLO1 140950Z 03002KT M02/M03 A3032 RMK A01 T10191031  RH  092%=      5-min Rain = 0
KLO1 140951Z 04002KT M02/M03 A3032 RMK A01 T10191030  RH  092%=      5-min Rain = 0
KLO1 140952Z 04002KT M02/M03 A3032 RMK A01 T10191030  RH  092%=      5-min Rain = 0
KLO1 140953Z 04002KT M02/M03 A3032 RMK A01 T10201031  RH  092%=      5-min Rain = 0
KLO1 140954Z 04002KT M02/M03 A3032 RMK A01 T10191030  RH  092%=      5-min Rain = 0
KLO1 140955Z 04001KT M02/M03 A3032 RMK A01 T10191030  RH  092%=      5-min Rain = 0
KLO1 140956Z 04002KT M02/M03 A3032 RMK A01 T10191030  RH  092%=      5-min Rain = 0
KLO1 140957Z 04002KT M02/M03 A3031 RMK A01 T10191030  RH  092%=      5-min Rain = 0
KLO1 140958Z 04002KT M02/M03 A3031 RMK A01 T10191030  RH  092%=      5-min Rain = 0
KLO1 140959Z 05002KT M02/M03 A3032 RMK A01 T10191030  RH  092%=      5-min Rain = 0
KLO1 141000Z 05002KT M02/M03 A3032 RMK A01 T10191030  RH  092%=      5-min Rain = 0
KLO1 141001Z 04002KT M02/M03 A3032 RMK A01 T10191030  RH  092%=      5-min Rain = 0
KLO1 141002Z 04002KT M02/M03 A3032 RMK A01 T10191029  RH  092%=      5-min Rain = 0
KLO1 141003Z 04002KT M02/M03 A3032 RMK A01 T10191029  RH  092%=      5-min Rain = 0
KLO1 141004Z 04002KT M02/M03 A3032 RMK A01 T10181029  RH  092%=      5-min Rain = 0
KLO1 141005Z 05002KT M02/M03 A3031 RMK A01 T10181029  RH  092%=      5-min Rain = 0
KLO1 141006Z 05002KT M02/M03 A3031 RMK A01 T10181029  RH  092%=      5-min Rain = 0
KLO1 141007Z 05002KT M02/M03 A3031 RMK A01 T10181029  RH  093%=      5-min Rain = 0
KLO1 141008Z 05002KT M02/M03 A3031 RMK A01 T10181028  RH  093%=      5-min Rain = 0
KLO1 141009Z 06002KT M02/M03 A3031 RMK A01 T10171028  RH  093%=      5-min Rain = 0
KLO1 141010Z 06001KT M02/M03 A3031 RMK A01 T10181028  RH  093%=      5-min Rain = 0
KLO1 141011Z 06001KT M02/M03 A3031 RMK A01 T10181028  RH  092%=      5-min Rain = 0
KLO1 141012Z 06002KT M02/M03 A3032 RMK A01 T10181028  RH  092%=      5-min Rain = 0
KLO1 141013Z 06002KT M02/M03 A3032 RMK A01 T10171028  RH  092%=      5-min Rain = 0
KLO1 141014Z 06002KT M02/M03 A3032 RMK A01 T10171028  RH  092%=      5-min Rain = 0
KLO1 141015Z 06002KT M02/M03 A3032 RMK A01 T10181028  RH  092%=      5-min Rain = 0
KLO1 141016Z 07002KT M02/M03 A3031 RMK A01 T10181028  RH  092%=      5-min Rain = 0
KLO1 141017Z 07002KT M02/M03 A3032 RMK A01 T10171028  RH  092%=      5-min Rain = 0
KLO1 141018Z 06002KT M02/M03 A3031 RMK A01 T10181028  RH  092%=      5-min Rain = 0
KLO1 141019Z 06002KT M02/M03 A3031 RMK A01 T10171028  RH  092%=      5-min Rain = 0
KLO1 141020Z 07002KT M02/M03 A3031 RMK A01 T10181029  RH  092%=      5-min Rain = 0
KLO1 141021Z 07002KT M02/M03 A3031 RMK A01 T10171028  RH  092%=      5-min Rain = 0
KLO1 141022Z 09002KT M02/M03 A3031 RMK A01 T10171028  RH  092%=      5-min Rain = 0
KLO1 141023Z 07002KT M02/M03 A3031 RMK A01 T10171028  RH  092%=      5-min Rain = 0
KLO1 141024Z 07002KT M02/M03 A3031 RMK A01 T10171028  RH  092%=      5-min Rain = 0
KLO1 141025Z 08001KT M02/M03 A3031 RMK A01 T10171028  RH  092%=      5-min Rain = 0
KLO1 141026Z 08001KT M02/M03 A3031 RMK A01 T10171028  RH  092%=      5-min Rain = 0
KLO1 141027Z 09001KT M02/M03 A3031 RMK A01 T10171028  RH  092%=      5-min Rain = 0
KLO1 141028Z 08002KT M02/M03 A3031 RMK A01 T10161027  RH  092%=      5-min Rain = 0
KLO1 141029Z 08002KT M02/M03 A3032 RMK A01 T10171028  RH  092%=      5-min Rain = 0
KLO1 141030Z 08002KT M02/M03 A3031 RMK A01 T10171028  RH  092%=      5-min Rain = 0
KLO1 141031Z 08002KT M02/M03 A3032 RMK A01 T10171028  RH  092%=      5-min Rain = 0
KLO1 141032Z 08002KT M02/M03 A3031 RMK A01 T10161027  RH  092%=      5-min Rain = 0
KLO1 141033Z 09002KT M02/M03 A3031 RMK A01 T10161027  RH  092%=      5-min Rain = 0
KLO1 141034Z 08002KT M02/M03 A3031 RMK A01 T10161027  RH  092%=      5-min Rain = 0
KLO1 141035Z 09002KT M02/M03 A3031 RMK A01 T10161027  RH  092%=      5-min Rain = 0
KLO1 141036Z 09002KT M02/M03 A3031 RMK A01 T10161027  RH  092%=      5-min Rain = 0
KLO1 141037Z 09003KT M02/M03 A3031 RMK A01 T10151026  RH  092%=      5-min Rain = 0
KLO1 141038Z 10002KT M02/M03 A3031 RMK A01 T10151026  RH  092%=      5-min Rain = 0
KLO1 141039Z 10002KT M02/M03 A3031 RMK A01 T10151026  RH  092%=      5-min Rain = 0
KLO1 141040Z 12001KT M02/M03 A3031 RMK A01 T10151026  RH  092%=      5-min Rain = 0
KLO1 141041Z 12001KT M02/M03 A3031 RMK A01 T10151026  RH  092%=      5-min Rain = 0
KLO1 141042Z 11002KT M02/M03 A3032 RMK A01 T10151026  RH  092%=      5-min Rain = 0
KLO1 141043Z 10001KT M02/M03 A3032 RMK A01 T10151026  RH  092%=      5-min Rain = 0
KLO1 141044Z 10001KT M01/M03 A3031 RMK A01 T10141026  RH  092%=      5-min Rain = 0
KLO1 141045Z 12002KT M02/M03 A3032 RMK A01 T10151026  RH  092%=      5-min Rain = 0
KLO1 141046Z 12002KT M02/M03 A3032 RMK A01 T10151026  RH  092%=      5-min Rain = 0
KLO1 141047Z 14002KT M01/M03 A3032 RMK A01 T10141026  RH  092%=      5-min Rain = 0
KLO1 141048Z 12002KT M01/M03 A3032 RMK A01 T10141025  RH  092%=      5-min Rain = 0
KLO1 141049Z 12002KT M01/M03 A3032 RMK A01 T10141025  RH  092%=      5-min Rain = 0
KLO1 141050Z 13002KT M01/M03 A3031 RMK A01 T10141025  RH  092%=      5-min Rain = 0
KLO1 141051Z 14002KT M01/M03 A3031 RMK A01 T10141025  RH  092%=      5-min Rain = 0
KLO1 141052Z 13002KT M01/M03 A3032 RMK A01 T10141025  RH  092%=      5-min Rain = 0
KLO1 141053Z 13002KT M01/M03 A3031 RMK A01 T10141025  RH  092%=      5-min Rain = 0
KLO1 141054Z 11002KT M01/M03 A3031 RMK A01 T10131025  RH  092%=      5-min Rain = 0
KLO1 141055Z 10004KT M01/M03 A3031 RMK A01 T10131025  RH  092%=      5-min Rain = 0
KLO1 141056Z 11004KT M01/M02 A3031 RMK A01 T10131024  RH  092%=      5-min Rain = 0
KLO1 141057Z 12004KT M01/M02 A3031 RMK A01 T10131024  RH  092%=      5-min Rain = 0
KLO1 141058Z 11004KT M01/M02 A3032 RMK A01 T10121024  RH  092%=      5-min Rain = 0
KLO1 141059Z 11004KT M01/M02 A3032 RMK A01 T10121024  RH  092%=      5-min Rain = 0
KLO1 141100Z 11004KT M01/M02 A3031 RMK A01 T10121024  RH  092%=      5-min Rain = 0
KLO1 141101Z 11006KT M01/M02 A3032 RMK A01 T10121024  RH  092%=      5-min Rain = 0
KLO1 141102Z 10004KT M01/M02 A3031 RMK A01 T10111024  RH  091%=      5-min Rain = 0
KLO1 141103Z 10004KT M01/M02 A3031 RMK A01 T10111024  RH  091%=      5-min Rain = 0
KLO1 141104Z 11004KT M01/M02 A3031 RMK A01 T10111024  RH  091%=      5-min Rain = 0
KLO1 141105Z 11005KT M01/M03 A3031 RMK A01 T10121025  RH  091%=      5-min Rain = 0
KLO1 141106Z 11004KT M01/M02 A3031 RMK A01 T10111024  RH  091%=      5-min Rain = 0
KLO1 141107Z 11005KT M01/M02 A3032 RMK A01 T10111024  RH  091%=      5-min Rain = 0
KLO1 141108Z 12007KT M01/M02 A3032 RMK A01 T10111024  RH  091%=      5-min Rain = 0
KLO1 141109Z 12006KT M01/M02 A3032 RMK A01 T10101023  RH  091%=      5-min Rain = 0
KLO1 141110Z 12006KT M01/M02 A3032 RMK A01 T10101023  RH  091%=      5-min Rain = 0
KLO1 141111Z 11006KT M01/M02 A3032 RMK A01 T10101022  RH  091%=      5-min Rain = 0
KLO1 141112Z 11006KT M01/M02 A3032 RMK A01 T10091022  RH  091%=      5-min Rain = 0
KLO1 141113Z 11006KT M01/M02 A3031 RMK A01 T10091022  RH  091%=      5-min Rain = 0
KLO1 141114Z 12007KT M01/M02 A3031 RMK A01 T10091022  RH  091%=      5-min Rain = 0
KLO1 141115Z 12007KT M01/M02 A3031 RMK A01 T10091021  RH  091%=      5-min Rain = 0
KLO1 141116Z 12007KT M01/M02 A3031 RMK A01 T10081021  RH  091%=      5-min Rain = 0
KLO1 141117Z 12007KT M01/M02 A3031 RMK A01 T10081021  RH  091%=      5-min Rain = 0
KLO1 141118Z 12008KT M01/M02 A3031 RMK A01 T10081021  RH  091%=      5-min Rain = 0
KLO1 141119Z 12008KT M01/M02 A3032 RMK A01 T10081021  RH  091%=      5-min Rain = 0
KLO1 141120Z 11007KT M01/M02 A3032 RMK A01 T10081021  RH  091%=      5-min Rain = 0
KLO1 141121Z 12007KT M01/M02 A3032 RMK A01 T10081021  RH  091%=      5-min Rain = 0
KLO1 141122Z 12006KT M01/M02 A3032 RMK A01 T10081021  RH  091%=      5-min Rain = 0
KLO1 141123Z 12008KT M01/M02 A3032 RMK A01 T10071020  RH  091%=      5-min Rain = 0
KLO1 141124Z 12007KT M01/M02 A3032 RMK A01 T10071020  RH  091%=      5-min Rain = 0
KLO1 141125Z 12007KT M01/M02 A3032 RMK A01 T10071020  RH  091%=      5-min Rain = 0
KLO1 141126Z 13008KT M01/M02 A3032 RMK A01 T10071020  RH  091%=      5-min Rain = 0
KLO1 141127Z 12007KT M01/M02 A3032 RMK A01 T10071020  RH  091%=      5-min Rain = 0
KLO1 141128Z 12006KT M01/M02 A3032 RMK A01 T10081020  RH  091%=      5-min Rain = 0
KLO1 141129Z 13007KT M01/M02 A3031 RMK A01 T10071020  RH  091%=      5-min Rain = 0
KLO1 141130Z 12007KT M01/M02 A3031 RMK A01 T10071020  RH  091%=      5-min Rain = 0
KLO1 141131Z 12006KT M01/M02 A3031 RMK A01 T10071020  RH  091%=      5-min Rain = 0
KLO1 141132Z 12005KT M01/M02 A3031 RMK A01 T10071020  RH  091%=      5-min Rain = 0
KLO1 141133Z 13008KT M01/M02 A3032 RMK A01 T10071020  RH  091%=      5-min Rain = 0
KLO1 141134Z 13007KT M01/M02 A3031 RMK A01 T10071020  RH  091%=      5-min Rain = 0
KLO1 141135Z 13008KT M01/M02 A3031 RMK A01 T10071020  RH  091%=      5-min Rain = 0
KLO1 141136Z 13009KT M01/M02 A3031 RMK A01 T10071020  RH  091%=      5-min Rain = 0
KLO1 141137Z 13008KT M01/M02 A3031 RMK A01 T10071020  RH  091%=      5-min Rain = 0
KLO1 141138Z 14008KT M01/M02 A3031 RMK A01 T10071020  RH  091%=      5-min Rain = 0
KLO1 141139Z 14008KT M01/M02 A3031 RMK A01 T10071020  RH  091%=      5-min Rain = 0
KLO1 141140Z 13007KT M01/M02 A3031 RMK A01 T10071020  RH  091%=      5-min Rain = 0
KLO1 141141Z 13008KT M01/M02 A3031 RMK A01 T10061019  RH  091%=      5-min Rain = 0
KLO1 141142Z 13008KT M01/M02 A3031 RMK A01 T10071019  RH  091%=      5-min Rain = 0
KLO1 141143Z 13008KT M01/M02 A3031 RMK A01 T10061019  RH  091%=      5-min Rain = 0
KLO1 141144Z 11006KT M01/M02 A3031 RMK A01 T10061019  RH  091%=      5-min Rain = 0
KLO1 141145Z 12007KT M01/M02 A3031 RMK A01 T10061019  RH  091%=      5-min Rain = 0
KLO1 141146Z 12006KT M01/M02 A3032 RMK A01 T10061019  RH  091%=      5-min Rain = 0
KLO1 141147Z 12007KT M01/M02 A3032 RMK A01 T10071019  RH  091%=      5-min Rain = 0
KLO1 141148Z 12007KT M01/M02 A3032 RMK A01 T10071019  RH  091%=      5-min Rain = 0
KLO1 141149Z 12006KT M01/M02 A3032 RMK A01 T10071019  RH  091%=      5-min Rain = 0
KLO1 141150Z 12007KT M01/M02 A3032 RMK A01 T10071019  RH  091%=      5-min Rain = 0
KLO1 141151Z 12007KT M01/M02 A3032 RMK A01 T10061019  RH  091%=      5-min Rain = 0
KLO1 141152Z 12007KT M01/M02 A3032 RMK A01 T10071020  RH  091%=      5-min Rain = 0
KLO1 141153Z 12007KT M01/M02 A3032 RMK A01 T10061019  RH  091%=      5-min Rain = 0
KLO1 141154Z 12006KT M01/M02 A3032 RMK A01 T10071019  RH  091%=      5-min Rain = 0
KLO1 141155Z 12007KT M01/M02 A3032 RMK A01 T10071019  RH  091%=      5-min Rain = 0
KLO1 141156Z 12006KT M01/M02 A3032 RMK A01 T10071020  RH  091%=      5-min Rain = 0
KLO1 141157Z 12007KT M01/M02 A3032 RMK A01 T10061020  RH  091%=      5-min Rain = 0
KLO1 141158Z 11010KT M01/M02 A3032 RMK A01 T10061019  RH  091%=      5-min Rain = 0
KLO1 141159Z 12008KT M01/M02 A3032 RMK A01 T10061019  RH  091%=      5-min Rain = 0
KLO1 141200Z 13008KT M01/M02 A3032 RMK A01 T10061019  RH  091%=      5-min Rain = 0
KLO1 141201Z 14009KT M01/M02 A3032 RMK A01 T10061019  RH  091%=      5-min Rain = 0
KLO1 141202Z 13009KT M01/M02 A3032 RMK A01 T10061019  RH  091%=      5-min Rain = 0
KLO1 141203Z 14010KT M01/M02 A3032 RMK A01 T10061019  RH  091%=      5-min Rain = 0
KLO1 141204Z 13010KT M01/M02 A3032 RMK A01 T10061020  RH  091%=      5-min Rain = 0
KLO1 141205Z 13011KT M01/M02 A3032 RMK A01 T10061020  RH  090%=      5-min Rain = 0
KLO1 141206Z 12009KT M01/M02 A3032 RMK A01 T10061020  RH  090%=      5-min Rain = 0
KLO1 141207Z 12009KT M01/M02 A3032 RMK A01 T10061020  RH  090%=      5-min Rain = 0
KLO1 141208Z 12011KT M01/M02 A3032 RMK A01 T10061020  RH  090%=      5-min Rain = 0
KLO1 141209Z 12010KT M01/M02 A3032 RMK A01 T10061020  RH  090%=      5-min Rain = 0
KLO1 141210Z 12008KT M01/M02 A3032 RMK A01 T10061020  RH  090%=      5-min Rain = 0
KLO1 141211Z 12008KT M01/M02 A3032 RMK A01 T10061019  RH  090%=      5-min Rain = 0
KLO1 141212Z 12008KT M01/M02 A3032 RMK A01 T10061020  RH  090%=      5-min Rain = 0
KLO1 141213Z 12009KT M01/M02 A3033 RMK A01 T10061020  RH  090%=      5-min Rain = 0
KLO1 141214Z 12007KT M01/M02 A3033 RMK A01 T10051020  RH  090%=      5-min Rain = 0
KLO1 141215Z 12007KT M01/M02 A3033 RMK A01 T10061020  RH  090%=      5-min Rain = 0
KLO1 141216Z 13008KT M01/M02 A3033 RMK A01 T10051020  RH  090%=      5-min Rain = 0
KLO1 141217Z 12006KT M01/M02 A3033 RMK A01 T10061020  RH  090%=      5-min Rain = 0
KLO1 141218Z 12007KT M01/M02 A3033 RMK A01 T10051020  RH  090%=      5-min Rain = 0
KLO1 141219Z 13008KT M01/M02 A3033 RMK A01 T10061020  RH  090%=      5-min Rain = 0
KLO1 141220Z 13010KT M01/M02 A3033 RMK A01 T10051019  RH  090%=      5-min Rain = 0
KLO1 141221Z 13010KT M01/M02 A3033 RMK A01 T10061020  RH  090%=      5-min Rain = 0
KLO1 141222Z 12009KT M01/M02 A3033 RMK A01 T10061020  RH  090%=      5-min Rain = 0
KLO1 141223Z 12010KT M01/M02 A3033 RMK A01 T10051020  RH  090%=      5-min Rain = 0
KLO1 141224Z 13008KT M01/M02 A3033 RMK A01 T10061020  RH  090%=      5-min Rain = 0
KLO1 141225Z 13008KT M01/M02 A3033 RMK A01 T10061020  RH  090%=      5-min Rain = 0
KLO1 141226Z 13009KT M01/M02 A3033 RMK A01 T10051019  RH  090%=      5-min Rain = 0
KLO1 141227Z 13009KT M01/M02 A3033 RMK A01 T10051019  RH  090%=      5-min Rain = 0
KLO1 141228Z 12007KT M01/M02 A3033 RMK A01 T10051020  RH  090%=      5-min Rain = 0
KLO1 141229Z 12007KT M01/M02 A3033 RMK A01 T10051019  RH  090%=      5-min Rain = 0
KLO1 141230Z 11007KT M01/M02 A3033 RMK A01 T10051019  RH  090%=      5-min Rain = 0
KLO1 141231Z 11008KT M01/M02 A3033 RMK A01 T10051019  RH  090%=      5-min Rain = 0
KLO1 141232Z 10008KT M01/M02 A3033 RMK A01 T10051020  RH  090%=      5-min Rain = 0
KLO1 141233Z 11008KT M01/M02 A3033 RMK A01 T10051020  RH  090%=      5-min Rain = 0
KLO1 141234Z 11009KT M01/M02 A3033 RMK A01 T10061020  RH  090%=      5-min Rain = 0
KLO1 141235Z 11010KT M01/M02 A3033 RMK A01 T10061020  RH  090%=      5-min Rain = 0
KLO1 141236Z 11008KT M01/M02 A3033 RMK A01 T10061020  RH  090%=      5-min Rain = 0
KLO1 141237Z 11009KT M01/M02 A3033 RMK A01 T10061020  RH  090%=      5-min Rain = 0
KLO1 141238Z 11010KT M01/M02 A3034 RMK A01 T10051019  RH  090%=      5-min Rain = 0
KLO1 141239Z 11009KT M01/M02 A3034 RMK A01 T10061019  RH  090%=      5-min Rain = 0
KLO1 141240Z 11008KT M01/M02 A3034 RMK A01 T10061019  RH  090%=      5-min Rain = 0
KLO1 141241Z 11009KT M01/M02 A3034 RMK A01 T10061019  RH  091%=      5-min Rain = 0
KLO1 141242Z 11009KT M01/M02 A3034 RMK A01 T10061019  RH  090%=      5-min Rain = 0
KLO1 141243Z 12008KT M01/M02 A3034 RMK A01 T10061019  RH  091%=      5-min Rain = 0
KLO1 141244Z 11009KT M01/M02 A3034 RMK A01 T10061020  RH  091%=      5-min Rain = 0
KLO1 141245Z 11008KT M01/M02 A3034 RMK A01 T10061020  RH  091%=      5-min Rain = 0
KLO1 141246Z 11009KT M01/M02 A3034 RMK A01 T10061019  RH  091%=      5-min Rain = 0
KLO1 141247Z 11007KT M01/M02 A3034 RMK A01 T10061019  RH  091%=      5-min Rain = 0
KLO1 141248Z 11006KT M01/M02 A3034 RMK A01 T10061020  RH  091%=      5-min Rain = 0
KLO1 141249Z 11006KT M01/M02 A3034 RMK A01 T10061019  RH  091%=      5-min Rain = 0
KLO1 141250Z 11008KT M01/M02 A3034 RMK A01 T10061019  RH  091%=      5-min Rain = 0
KLO1 141251Z 11007KT M01/M02 A3034 RMK A01 T10061019  RH  091%=      5-min Rain = 0
KLO1 141252Z 10008KT M01/M02 A3034 RMK A01 T10061019  RH  091%=      5-min Rain = 0
KLO1 141253Z 10009KT M01/M02 A3034 RMK A01 T10061019  RH  091%=      5-min Rain = 0
KLO1 141254Z 11008KT M01/M02 A3034 RMK A01 T10051019  RH  091%=      5-min Rain = 0
KLO1 141255Z 12007KT M01/M02 A3034 RMK A01 T10051018  RH  091%=      5-min Rain = 0
KLO1 141256Z 12007KT M01/M02 A3034 RMK A01 T10061019  RH  091%=      5-min Rain = 0
KLO1 141257Z 12007KT M01/M02 A3034 RMK A01 T10061019  RH  091%=      5-min Rain = 0
KLO1 141258Z 12007KT M01/M02 A3034 RMK A01 T10061019  RH  091%=      5-min Rain = 0
KLO1 141259Z 12007KT M01/M02 A3034 RMK A01 T10061019  RH  091%=      5-min Rain = 0
KLO1 141300Z 12008KT M01/M02 A3034 RMK A01 T10061019  RH  091%=      5-min Rain = 0
KLO1 141301Z 12007KT M01/M02 A3034 RMK A01 T10061019  RH  091%=      5-min Rain = 0
KLO1 141302Z 11006KT M01/M02 A3034 RMK A01 T10051019  RH  091%=      5-min Rain = 0
KLO1 141303Z 11008KT M01/M02 A3035 RMK A01 T10061019  RH  091%=      5-min Rain = 0
KLO1 141304Z 11008KT M01/M02 A3035 RMK A01 T10051018  RH  091%=      5-min Rain = 0
KLO1 141305Z 11008KT M01/M02 A3035 RMK A01 T10061019  RH  091%=      5-min Rain = 0
KLO1 141306Z 11009KT M01/M02 A3035 RMK A01 T10061018  RH  091%=      5-min Rain = 0
KLO1 141307Z 11009KT M01/M02 A3035 RMK A01 T10061019  RH  091%=      5-min Rain = 0
KLO1 141308Z 11007KT M01/M02 A3035 RMK A01 T10061019  RH  091%=      5-min Rain = 0
KLO1 141309Z 11008KT M01/M02 A3035 RMK A01 T10061019  RH  091%=      5-min Rain = 0
KLO1 141310Z 12008KT M01/M02 A3035 RMK A01 T10051018  RH  091%=      5-min Rain = 0
KLO1 141311Z 13007KT M01/M02 A3035 RMK A01 T10061018  RH  091%=      5-min Rain = 0
KLO1 141312Z 12008KT M01/M02 A3035 RMK A01 T10051018  RH  091%=      5-min Rain = 0
KLO1 141313Z 12008KT M01/M02 A3035 RMK A01 T10051018  RH  091%=      5-min Rain = 0
KLO1 141314Z 11007KT M01/M02 A3035 RMK A01 T10061018  RH  091%=      5-min Rain = 0
KLO1 141315Z 11008KT M01/M02 A3035 RMK A01 T10061018  RH  091%=      5-min Rain = 0
KLO1 141316Z 12006KT M01/M02 A3035 RMK A01 T10051018  RH  091%=      5-min Rain = 0
KLO1 141317Z 13007KT M01/M02 A3035 RMK A01 T10051018  RH  091%=      5-min Rain = 0
KLO1 141318Z 13007KT M01/M02 A3035 RMK A01 T10051017  RH  091%=      5-min Rain = 0
KLO1 141319Z 13009KT M01/M02 A3035 RMK A01 T10051017  RH  091%=      5-min Rain = 0
KLO1 141320Z 13009KT M01/M02 A3035 RMK A01 T10051018  RH  091%=      5-min Rain = 0
KLO1 141321Z 13010KT M01/M02 A3035 RMK A01 T10061019  RH  091%=      5-min Rain = 0
KLO1 141322Z 12009KT M01/M02 A3035 RMK A01 T10061019  RH  091%=      5-min Rain = 0
KLO1 141323Z 12008KT M01/M02 A3035 RMK A01 T10061019  RH  091%=      5-min Rain = 0
KLO1 141324Z 12009KT M01/M02 A3035 RMK A01 T10061018  RH  091%=      5-min Rain = 0
KLO1 141325Z 11009KT M01/M02 A3035 RMK A01 T10061018  RH  091%=      5-min Rain = 0
KLO1 141326Z 12010KT M01/M02 A3035 RMK A01 T10061018  RH  091%=      5-min Rain = 0
KLO1 141327Z 11009KT M01/M02 A3035 RMK A01 T10061019  RH  091%=      5-min Rain = 0
KLO1 141328Z 11009KT M01/M02 A3035 RMK A01 T10061018  RH  091%=      5-min Rain = 0
KLO1 141329Z 11008KT M01/M02 A3035 RMK A01 T10061019  RH  091%=      5-min Rain = 0
KLO1 141330Z 12008KT M01/M02 A3035 RMK A01 T10061019  RH  091%=      5-min Rain = 0
KLO1 141331Z 12008KT M01/M02 A3035 RMK A01 T10071019  RH  092%=      5-min Rain = 0
KLO1 141332Z 11008KT M01/M02 A3035 RMK A01 T10071019  RH  092%=      5-min Rain = 0
KLO1 141333Z 11008KT M01/M02 A3035 RMK A01 T10061018  RH  092%=      5-min Rain = 0
KLO1 141334Z 11009KT M01/M02 A3035 RMK A01 T10061018  RH  092%=      5-min Rain = 0
KLO1 141335Z 11008KT M01/M02 A3035 RMK A01 T10061018  RH  092%=      5-min Rain = 0
KLO1 141336Z 11010KT M01/M02 A3035 RMK A01 T10061018  RH  092%=      5-min Rain = 0
KLO1 141337Z 11009KT M01/M02 A3035 RMK A01 T10061018  RH  092%=      5-min Rain = 0
KLO1 141338Z 11008KT M01/M02 A3035 RMK A01 T10061018  RH  092%=      5-min Rain = 0
KLO1 141339Z 12007KT M01/M02 A3035 RMK A01 T10061018  RH  092%=      5-min Rain = 0
KLO1 141340Z 12007KT M01/M02 A3035 RMK A01 T10061018  RH  092%=      5-min Rain = 0
KLO1 141341Z 12008KT M01/M02 A3035 RMK A01 T10061018  RH  092%=      5-min Rain = 0
KLO1 141342Z 12009KT M01/M02 A3035 RMK A01 T10061018  RH  092%=      5-min Rain = 0
KLO1 141343Z 11008KT M01/M02 A3035 RMK A01 T10061018  RH  092%=      5-min Rain = 0
KLO1 141344Z 12008KT M01/M02 A3035 RMK A01 T10061018  RH  092%=      5-min Rain = 0
KLO1 141345Z 11008KT M01/M02 A3035 RMK A01 T10061018  RH  092%=      5-min Rain = 0
KLO1 141346Z 11008KT M01/M02 A3035 RMK A01 T10061018  RH  092%=      5-min Rain = 0
KLO1 141347Z 11008KT M01/M02 A3035 RMK A01 T10061018  RH  092%=      5-min Rain = 0
KLO1 141348Z 11008KT M01/M02 A3035 RMK A01 T10061018  RH  092%=      5-min Rain = 0
KLO1 141349Z 11009KT M01/M02 A3035 RMK A01 T10061018  RH  092%=      5-min Rain = 0
KLO1 141350Z 11010KT M01/M02 A3035 RMK A01 T10071019  RH  092%=      5-min Rain = 0
KLO1 141351Z 11009KT M01/M02 A3035 RMK A01 T10061018  RH  092%=      5-min Rain = 0
KLO1 141352Z 11008KT M01/M02 A3035 RMK A01 T10061018  RH  092%=      5-min Rain = 0
KLO1 141353Z 11008KT M01/M02 A3035 RMK A01 T10061018  RH  092%=      5-min Rain = 0
KLO1 141354Z 11009KT M01/M02 A3035 RMK A01 T10061018  RH  092%=      5-min Rain = 0
KLO1 141355Z 11008KT M01/M02 A3035 RMK A01 T10071018  RH  092%=      5-min Rain = 0
KLO1 141356Z 11008KT M01/M02 A3035 RMK A01 T10071019  RH  092%=      5-min Rain = 0
KLO1 141357Z 12008KT M01/M02 A3035 RMK A01 T10071019  RH  092%=      5-min Rain = 0
KLO1 141358Z 12007KT M01/M02 A3035 RMK A01 T10071018  RH  092%=      5-min Rain = 0
KLO1 141359Z 12008KT M01/M02 A3035 RMK A01 T10061018  RH  092%=      5-min Rain = 0
KLO1 141400Z 12008KT M01/M02 A3035 RMK A01 T10061018  RH  092%=      5-min Rain = 0
KLO1 141401Z 12009KT M01/M02 A3035 RMK A01 T10071018  RH  092%=      5-min Rain = 0
KLO1 141402Z 12008KT M01/M02 A3035 RMK A01 T10061018  RH  092%=      5-min Rain = 0
KLO1 141403Z 12007KT M01/M02 A3035 RMK A01 T10061018  RH  092%=      5-min Rain = 0
KLO1 141404Z 11007KT M01/M02 A3035 RMK A01 T10071018  RH  092%=      5-min Rain = 0
KLO1 141405Z 12008KT M01/M02 A3035 RMK A01 T10061017  RH  092%=      5-min Rain = 0
KLO1 141406Z 11007KT M01/M02 A3035 RMK A01 T10061017  RH  092%=      5-min Rain = 0
KLO1 141407Z 11007KT M01/M02 A3035 RMK A01 T10061017  RH  092%=      5-min Rain = 0
KLO1 141408Z 11007KT M01/M02 A3035 RMK A01 T10061017  RH  092%=      5-min Rain = 0
KLO1 141409Z 11007KT M01/M02 A3035 RMK A01 T10061017  RH  092%=      5-min Rain = 0
KLO1 141410Z 12007KT M01/M02 A3035 RMK A01 T10061017  RH  092%=      5-min Rain = 0
KLO1 141411Z 12007KT M01/M02 A3035 RMK A01 T10061017  RH  092%=      5-min Rain = 0
KLO1 141412Z 12007KT M01/M02 A3035 RMK A01 T10061017  RH  092%=      5-min Rain = 0
KLO1 141413Z 11007KT M01/M02 A3035 RMK A01 T10061018  RH  092%=      5-min Rain = 0
KLO1 141414Z 11008KT M01/M02 A3035 RMK A01 T10061018  RH  092%=      5-min Rain = 0
KLO1 141415Z 11007KT M01/M02 A3035 RMK A01 T10061018  RH  092%=      5-min Rain = 0
KLO1 141416Z 11007KT M01/M02 A3035 RMK A01 T10061018  RH  092%=      5-min Rain = 0
KLO1 141417Z 11007KT M01/M02 A3035 RMK A01 T10061017  RH  092%=      5-min Rain = 0
KLO1 141418Z 11008KT M01/M02 A3035 RMK A01 T10061017  RH  092%=      5-min Rain = 0
KLO1 141419Z 12007KT M01/M02 A3035 RMK A01 T10061017  RH  092%=      5-min Rain = 0
KLO1 141420Z 12007KT M01/M02 A3035 RMK A01 T10061017  RH  092%=      5-min Rain = 0
KLO1 141421Z 11007KT M01/M02 A3035 RMK A01 T10061017  RH  092%=      5-min Rain = 0
KLO1 141422Z 11008KT M01/M02 A3035 RMK A01 T10061017  RH  092%=      5-min Rain = 0
KLO1 141423Z 11008KT M01/M02 A3035 RMK A01 T10051017  RH  092%=      5-min Rain = 0
KLO1 141424Z 11007KT M01/M02 A3035 RMK A01 T10061017  RH  092%=      5-min Rain = 0
KLO1 141425Z 11007KT M01/M02 A3035 RMK A01 T10061017  RH  092%=      5-min Rain = 0
KLO1 141426Z 12008KT M01/M02 A3035 RMK A01 T10061017  RH  092%=      5-min Rain = 0
KLO1 141427Z 12007KT M01/M02 A3035 RMK A01 T10051016  RH  092%=      5-min Rain = 0
KLO1 141428Z 12008KT M01/M02 A3035 RMK A01 T10051016  RH  092%=      5-min Rain = 0
KLO1 141429Z 12008KT M01/M02 A3035 RMK A01 T10051016  RH  092%=      5-min Rain = 0
KLO1 141430Z 12008KT M01/M02 A3035 RMK A01 T10051016  RH  092%=      5-min Rain = 0
KLO1 141431Z 12008KT M01/M02 A3035 RMK A01 T10051017  RH  092%=      5-min Rain = 0
KLO1 141432Z 12008KT M01/M02 A3035 RMK A01 T10051017  RH  092%=      5-min Rain = 0
KLO1 141433Z 12008KT M01/M02 A3035 RMK A01 T10051017  RH  092%=      5-min Rain = 0
KLO1 141434Z 12008KT M01/M02 A3035 RMK A01 T10051017  RH  092%=      5-min Rain = 0
KLO1 141435Z 13008KT M01/M02 A3035 RMK A01 T10051016  RH  092%=      5-min Rain = 0
KLO1 141436Z 13009KT M00/M02 A3035 RMK A01 T10041016  RH  092%=      5-min Rain = 0
KLO1 141437Z 12010KT M00/M02 A3035 RMK A01 T10041015  RH  092%=      5-min Rain = 0
KLO1 141438Z 13009KT M00/M02 A3035 RMK A01 T10041015  RH  092%=      5-min Rain = 0
KLO1 141439Z 13010KT M00/M02 A3035 RMK A01 T10041015  RH  092%=      5-min Rain = 0
KLO1 141440Z 12009KT M00/M02 A3035 RMK A01 T10041015  RH  092%=      5-min Rain = 0
KLO1 141441Z 12009KT M00/M02 A3035 RMK A01 T10041015  RH  092%=      5-min Rain = 0
KLO1 141442Z 12009KT M00/M02 A3035 RMK A01 T10041015  RH  092%=      5-min Rain = 0
KLO1 141443Z 13009KT M00/M02 A3035 RMK A01 T10041015  RH  092%=      5-min Rain = 0
KLO1 141444Z 13010KT M00/M02 A3035 RMK A01 T10041015  RH  092%=      5-min Rain = 0
KLO1 141445Z 13009KT M00/M02 A3035 RMK A01 T10041015  RH  092%=      5-min Rain = 0
KLO1 141446Z 13008KT M00/M02 A3035 RMK A01 T10041015  RH  092%=      5-min Rain = 0
KLO1 141447Z 14008KT M00/M02 A3035 RMK A01 T10041015  RH  092%=      5-min Rain = 0
KLO1 141448Z 12007KT M00/M02 A3035 RMK A01 T10041015  RH  093%=      5-min Rain = 0
KLO1 141449Z 13007KT M00/M02 A3035 RMK A01 T10041015  RH  093%=      5-min Rain = 0
KLO1 141450Z 12009KT M00/M01 A3035 RMK A01 T10041014  RH  093%=      5-min Rain = 0
KLO1 141451Z 12008KT M00/M01 A3035 RMK A01 T10041014  RH  093%=      5-min Rain = 0
KLO1 141452Z 13008KT M00/M01 A3035 RMK A01 T10041014  RH  093%=      5-min Rain = 0
KLO1 141453Z 14009KT M00/M01 A3035 RMK A01 T10041014  RH  093%=      5-min Rain = 0
KLO1 141454Z 13009KT M00/M01 A3035 RMK A01 T10041014  RH  093%=      5-min Rain = 0
KLO1 141455Z 12008KT M00/M01 A3035 RMK A01 T10031014  RH  093%=      5-min Rain = 0
KLO1 141456Z 12009KT M00/M01 A3035 RMK A01 T10031014  RH  093%=      5-min Rain = 0
KLO1 141457Z 12008KT M00/M01 A3035 RMK A01 T10031014  RH  093%=      5-min Rain = 0
KLO1 141458Z 12009KT M00/M02 A3035 RMK A01 T10041015  RH  093%=      5-min Rain = 0
KLO1 141459Z 12008KT M00/M01 A3035 RMK A01 T10041014  RH  093%=      5-min Rain = 0
KLO1 141500Z 12008KT M00/M01 A3035 RMK A01 T10041014  RH  093%=      5-min Rain = 0
KLO1 141501Z 12007KT M00/M01 A3035 RMK A01 T10041014  RH  093%=      5-min Rain = 0
KLO1 141502Z 12008KT M00/M01 A3035 RMK A01 T10041013  RH  093%=      5-min Rain = 0
KLO1 141503Z 12006KT M00/M01 A3035 RMK A01 T10031013  RH  093%=      5-min Rain = 0
KLO1 141504Z 12009KT M00/M01 A3035 RMK A01 T10031012  RH  093%=      5-min Rain = 0
KLO1 141505Z 12008KT M00/M01 A3035 RMK A01 T10021012  RH  093%=      5-min Rain = 0
KLO1 141506Z 13007KT M00/M01 A3035 RMK A01 T10021012  RH  093%=      5-min Rain = 0
KLO1 141507Z 13008KT M00/M01 A3035 RMK A01 T10021012  RH  093%=      5-min Rain = 0
KLO1 141508Z 12009KT M00/M01 A3035 RMK A01 T10021012  RH  093%=      5-min Rain = 0
KLO1 141509Z 12009KT M00/M01 A3035 RMK A01 T10021012  RH  093%=      5-min Rain = 0
KLO1 141510Z 12009KT M00/M01 A3035 RMK A01 T10021012  RH  093%=      5-min Rain = 0
KLO1 141511Z 12009KT M00/M01 A3035 RMK A01 T10021013  RH  093%=      5-min Rain = 0
KLO1 141512Z 12009KT M00/M01 A3035 RMK A01 T10031013  RH  093%=      5-min Rain = 0
KLO1 141513Z 11009KT M00/M01 A3035 RMK A01 T10031014  RH  093%=      5-min Rain = 0
KLO1 141514Z 11008KT M00/M01 A3035 RMK A01 T10031014  RH  093%=      5-min Rain = 0
KLO1 141515Z 12009KT M00/M01 A3035 RMK A01 T10031013  RH  093%=      5-min Rain = 0
KLO1 141516Z 11008KT M00/M01 A3035 RMK A01 T10031013  RH  093%=      5-min Rain = 0
KLO1 141517Z 11008KT M00/M01 A3035 RMK A01 T10031013  RH  093%=      5-min Rain = 0
KLO1 141518Z 12008KT M00/M01 A3035 RMK A01 T10031013  RH  093%=      5-min Rain = 0
KLO1 141519Z 12008KT M00/M01 A3035 RMK A01 T10031013  RH  093%=      5-min Rain = 0
KLO1 141520Z 13007KT M00/M01 A3035 RMK A01 T10031013  RH  093%=      5-min Rain = 0
KLO1 141521Z 12010KT M00/M01 A3035 RMK A01 T10021011  RH  093%=      5-min Rain = 0
KLO1 141522Z 12010KT M00/M01 A3035 RMK A01 T10011011  RH  093%=      5-min Rain = 0
KLO1 141523Z 12009KT M00/M01 A3035 RMK A01 T10021012  RH  093%=      5-min Rain = 0
KLO1 141524Z 12009KT M00/M01 A3035 RMK A01 T10021012  RH  093%=      5-min Rain = 0
KLO1 141525Z 12010KT M00/M01 A3035 RMK A01 T10021012  RH  093%=      5-min Rain = 0
KLO1 141526Z 12008KT M00/M01 A3035 RMK A01 T10031012  RH  093%=      5-min Rain = 0
KLO1 141527Z 12009KT M00/M01 A3035 RMK A01 T10031012  RH  093%=      5-min Rain = 0
KLO1 141528Z 13009KT M00/M01 A3035 RMK A01 T10021012  RH  094%=      5-min Rain = 0
KLO1 141529Z 13008KT M00/M01 A3035 RMK A01 T10021011  RH  094%=      5-min Rain = 0
KLO1 141530Z 13007KT M00/M01 A3035 RMK A01 T10021011  RH  094%=      5-min Rain = 0
KLO1 141531Z 13008KT M00/M01 A3035 RMK A01 T10021011  RH  094%=      5-min Rain = 0
KLO1 141532Z 12008KT M00/M01 A3035 RMK A01 T10011010  RH  094%=      5-min Rain = 0
KLO1 141533Z 12009KT M00/M01 A3035 RMK A01 T10011010  RH  094%=      5-min Rain = 0
KLO1 141534Z 12009KT M00/M01 A3035 RMK A01 T10011010  RH  094%=      5-min Rain = 0
KLO1 141535Z 13007KT 00/01 A3035 RMK A01 T00-000-9  RH  094%=      5-min Rain = 0
KLO1 141536Z 13008KT 00/M01 A3035 RMK A01 T00011008  RH  094%=      5-min Rain = 0
KLO1 141537Z 14009KT 00/M01 A3035 RMK A01 T00011008  RH  094%=      5-min Rain = 0
KLO1 141538Z 13008KT 00/M01 A3035 RMK A01 T00011009  RH  093%=      5-min Rain = 0
KLO1 141539Z 12008KT 00/M01 A3035 RMK A01 T00011008  RH  093%=      5-min Rain = 0
KLO1 141540Z 13008KT 00/M01 A3035 RMK A01 T00011009  RH  093%=      5-min Rain = 0
KLO1 141541Z 14008KT 00/M01 A3035 RMK A01 T00011009  RH  093%=      5-min Rain = 0
KLO1 141542Z 14008KT 00/M01 A3035 RMK A01 T00011008  RH  093%=      5-min Rain = 0
KLO1 141543Z 13007KT 00/M01 A3035 RMK A01 T00021008  RH  093%=      5-min Rain = 0
KLO1 141544Z 13007KT 00/M01 A3036 RMK A01 T00011008  RH  093%=      5-min Rain = 0
KLO1 141545Z 13009KT 00/M01 A3036 RMK A01 T00021008  RH  093%=      5-min Rain = 0
KLO1 141546Z 13010KT 00/M01 A3036 RMK A01 T00021008  RH  093%=      5-min Rain = 0
KLO1 141547Z 13009KT 00/M01 A3036 RMK A01 T00021008  RH  093%=      5-min Rain = 0
KLO1 141548Z 13009KT 00/M01 A3036 RMK A01 T00021008  RH  093%=      5-min Rain = 0
KLO1 141549Z 13010KT 00/M01 A3036 RMK A01 T00021007  RH  093%=      5-min Rain = 0
KLO1 141550Z 14008KT 00/M01 A3036 RMK A01 T00021007  RH  093%=      5-min Rain = 0
KLO1 141551Z 13008KT 00/M01 A3036 RMK A01 T00021008  RH  093%=      5-min Rain = 0
KLO1 141552Z 13008KT 00/M01 A3036 RMK A01 T00021008  RH  093%=      5-min Rain = 0
KLO1 141553Z 13008KT 00/M01 A3036 RMK A01 T00021007  RH  093%=      5-min Rain = 0
KLO1 141554Z 14009KT 00/M01 A3036 RMK A01 T00031006  RH  093%=      5-min Rain = 0
KLO1 141555Z 13008KT 00/M01 A3036 RMK A01 T00041006  RH  093%=      5-min Rain = 0
KLO1 141556Z 12010KT 00/M01 A3036 RMK A01 T00041006  RH  093%=      5-min Rain = 0
KLO1 141557Z 14009KT 00/M01 A3036 RMK A01 T00031007  RH  093%=      5-min Rain = 0
KLO1 141558Z 14009KT 00/M01 A3036 RMK A01 T00031007  RH  093%=      5-min Rain = 0
KLO1 141559Z 14008KT 00/M01 A3036 RMK A01 T00031008  RH  093%=      5-min Rain = 0
KLO1 141600Z 13008KT 00/M01 A3036 RMK A01 T00031007  RH  093%=      5-min Rain = 0
KLO1 141601Z 14009KT 00/M01 A3036 RMK A01 T00031007  RH  093%=      5-min Rain = 0
KLO1 141602Z 13010KT 00/M01 A3036 RMK A01 T00031007  RH  093%=      5-min Rain = 0
KLO1 141603Z 14010KT 00/M01 A3036 RMK A01 T00041006  RH  093%=      5-min Rain = 0
KLO1 141604Z 14010KT 00/M01 A3036 RMK A01 T00041006  RH  093%=      5-min Rain = 0
KLO1 141605Z 13010KT 00/M01 A3036 RMK A01 T00041006  RH  093%=      5-min Rain = 0
KLO1 141606Z 14009KT 00/M01 A3036 RMK A01 T00041006  RH  093%=      5-min Rain = 0
KLO1 141607Z 13008KT 00/M01 A3036 RMK A01 T00041006  RH  093%=      5-min Rain = 0
KLO1 141608Z 13010KT 01/M01 A3036 RMK A01 T00051005  RH  093%=      5-min Rain = 0
KLO1 141609Z 13010KT 01/M01 A3036 RMK A01 T00051005  RH  093%=      5-min Rain = 0
KLO1 141610Z 14010KT 00/M01 A3036 RMK A01 T00041006  RH  093%=      5-min Rain = 0
KLO1 141611Z 14012KT 00/M01 A3036 RMK A01 T00041006  RH  093%=      5-min Rain = 0
KLO1 141612Z 15011KT 01/M01 A3036 RMK A01 T00051005  RH  093%=      5-min Rain = 0
KLO1 141613Z 14010KT 01/M01 A3036 RMK A01 T00051005  RH  093%=      5-min Rain = 0
KLO1 141614Z 15008KT 01/M01 A3036 RMK A01 T00051005  RH  093%=      5-min Rain = 0
KLO1 141615Z 15010KT 01/M00 A3036 RMK A01 T00061004  RH  093%=      5-min Rain = 0
KLO1 141616Z 14010KT 01/M00 A3036 RMK A01 T00061004  RH  093%=      5-min Rain = 0
KLO1 141617Z 15010KT 01/M00 A3036 RMK A01 T00061004  RH  093%=      5-min Rain = 0
KLO1 141618Z 15009KT 01/M00 A3036 RMK A01 T00061004  RH  093%=      5-min Rain = 0
KLO1 141619Z 13010KT 01/M00 A3036 RMK A01 T00061004  RH  093%=      5-min Rain = 0
KLO1 141620Z 14010KT 01/M00 A3036 RMK A01 T00071004  RH  093%=      5-min Rain = 0
KLO1 141621Z 14010KT 01/M00 A3035 RMK A01 T00061004  RH  093%=      5-min Rain = 0
KLO1 141622Z 15010KT 01/M00 A3035 RMK A01 T00061004  RH  093%=      5-min Rain = 0
KLO1 141623Z 15010KT 01/M01 A3035 RMK A01 T00061005  RH  093%=      5-min Rain = 0
KLO1 141624Z 14009KT 01/M00 A3036 RMK A01 T00071004  RH  093%=      5-min Rain = 0
KLO1 141625Z 14009KT 01/M00 A3036 RMK A01 T00081003  RH  093%=      5-min Rain = 0
KLO1 141626Z 13009KT 01/M00 A3036 RMK A01 T00071003  RH  093%=      5-min Rain = 0
KLO1 141627Z 13011KT 01/M00 A3035 RMK A01 T00081003  RH  092%=      5-min Rain = 0
KLO1 141628Z 14010KT 01/M00 A3035 RMK A01 T00081003  RH  092%=      5-min Rain = 0
KLO1 141629Z 13010KT 01/M00 A3035 RMK A01 T00081004  RH  092%=      5-min Rain = 0
KLO1 141630Z 13009KT 01/M00 A3036 RMK A01 T00081004  RH  092%=      5-min Rain = 0
KLO1 141631Z 14011KT 01/M00 A3036 RMK A01 T00081003  RH  092%=      5-min Rain = 0
KLO1 141632Z 14011KT 01/M00 A3036 RMK A01 T00091002  RH  092%=      5-min Rain = 0
KLO1 141633Z 14012KT 01/M00 A3035 RMK A01 T00101001  RH  092%=      5-min Rain = 0
KLO1 141634Z 14012KT 01/M00 A3035 RMK A01 T00101002  RH  092%=      5-min Rain = 0
KLO1 141635Z 14012KT 01/M00 A3035 RMK A01 T00091003  RH  092%=      5-min Rain = 0
KLO1 141636Z 14010KT 01/M00 A3035 RMK A01 T00091003  RH  092%=      5-min Rain = 0
KLO1 141637Z 14009KT 01/M00 A3035 RMK A01 T00091003  RH  092%=      5-min Rain = 0
KLO1 141638Z 13008KT 01/M00 A3035 RMK A01 T00091003  RH  092%=      5-min Rain = 0
KLO1 141639Z 13010KT 01/M00 A3035 RMK A01 T00101001  RH  092%=      5-min Rain = 0
KLO1 141640Z 13010KT 01/M00 A3035 RMK A01 T00101002  RH  092%=      5-min Rain = 0
KLO1 141641Z 14012KT 01/M00 A3035 RMK A01 T00101002  RH  092%=      5-min Rain = 0
KLO1 141642Z 14009KT 01/M00 A3035 RMK A01 T00111002  RH  092%=      5-min Rain = 0
KLO1 141643Z 14008KT 01/M00 A3035 RMK A01 T00101002  RH  091%=      5-min Rain = 0
KLO1 141644Z 15009KT 01/M00 A3035 RMK A01 T00101003  RH  091%=      5-min Rain = 0
KLO1 141645Z 15009KT 01/M00 A3035 RMK A01 T00111003  RH  091%=      5-min Rain = 0
KLO1 141646Z 13010KT 01/M00 A3035 RMK A01 T00111002  RH  091%=      5-min Rain = 0
KLO1 141647Z 14010KT 01/M00 A3035 RMK A01 T00111002  RH  091%=      5-min Rain = 0
KLO1 141648Z 13011KT 01/M00 A3035 RMK A01 T00111002  RH  091%=      5-min Rain = 0
KLO1 141649Z 14011KT 01/M00 A3035 RMK A01 T00101004  RH  090%=      5-min Rain = 0
KLO1 141650Z 14011KT 01/M00 A3035 RMK A01 T00101003  RH  091%=      5-min Rain = 0
KLO1 141651Z 14010KT 01/M00 A3035 RMK A01 T00111003  RH  090%=      5-min Rain = 0
KLO1 141652Z 15010KT 01/M00 A3035 RMK A01 T00101004  RH  091%=      5-min Rain = 0
KLO1 141653Z 15010KT 01/M00 A3035 RMK A01 T00101003  RH  091%=      5-min Rain = 0
KLO1 141654Z 14010KT 01/M00 A3035 RMK A01 T00101003  RH  090%=      5-min Rain = 0
KLO1 141655Z 14008KT 01/M00 A3035 RMK A01 T00111003  RH  091%=      5-min Rain = 0
KLO1 141656Z 14008KT 01/M00 A3035 RMK A01 T00111002  RH  091%=      5-min Rain = 0
KLO1 141657Z 14009KT 01/M00 A3035 RMK A01 T00121001  RH  091%=      5-min Rain = 0
KLO1 141658Z 15009KT 01/M00 A3035 RMK A01 T00131001  RH  091%=      5-min Rain = 0
KLO1 141659Z 15008KT 01/M00 A3035 RMK A01 T00121002  RH  090%=      5-min Rain = 0
KLO1 141700Z 15007KT 01/M00 A3035 RMK A01 T00121002  RH  090%=      5-min Rain = 0
KLO1 141701Z 15008KT 01/00 A3035 RMK A01 T001300-0  RH  091%=      5-min Rain = 0
KLO1 141702Z 14008KT 01/M00 A3035 RMK A01 T00131001  RH  090%=      5-min Rain = 0
KLO1 141703Z 15007KT 01/M00 A3035 RMK A01 T00131002  RH  090%=      5-min Rain = 0
KLO1 141704Z 15007KT 01/M00 A3035 RMK A01 T00131002  RH  090%=      5-min Rain = 0
KLO1 141705Z 14006KT 01/M00 A3035 RMK A01 T00131002  RH  090%=      5-min Rain = 0
KLO1 141706Z 15009KT 01/M00 A3035 RMK A01 T00141001  RH  090%=      5-min Rain = 0
KLO1 141707Z 15008KT 02/00 A3035 RMK A01 T00150000  RH  090%=      5-min Rain = 0
KLO1 141708Z 14010KT 02/00 A3035 RMK A01 T00150001  RH  090%=      5-min Rain = 0
KLO1 141709Z 14011KT 02/M00 A3035 RMK A01 T00151001  RH  089%=      5-min Rain = 0
KLO1 141710Z 15011KT 02/M00 A3035 RMK A01 T00151001  RH  089%=      5-min Rain = 0
KLO1 141711Z 15010KT 01/M00 A3035 RMK A01 T00141002  RH  089%=      5-min Rain = 0
KLO1 141712Z 14010KT 01/M00 A3035 RMK A01 T00141002  RH  089%=      5-min Rain = 0
KLO1 141713Z 15009KT 02/M00 A3035 RMK A01 T00151002  RH  089%=      5-min Rain = 0
KLO1 141714Z 15009KT 02/M00 A3035 RMK A01 T00151001  RH  089%=      5-min Rain = 0
KLO1 141715Z 16011KT 02/M00 A3035 RMK A01 T00161001  RH  089%=      5-min Rain = 0
KLO1 141716Z 15012KT 02/M00 A3035 RMK A01 T00161001  RH  089%=      5-min Rain = 0
KLO1 141717Z 15012KT 02/M00 A3035 RMK A01 T00161001  RH  088%=      5-min Rain = 0
KLO1 141718Z 15012KT 02/00 A3035 RMK A01 T001700-0  RH  088%=      5-min Rain = 0
KLO1 141719Z 15010KT 02/00 A3034 RMK A01 T001700-0  RH  088%=      5-min Rain = 0
KLO1 141720Z 15009KT 02/00 A3034 RMK A01 T00180000  RH  088%=      5-min Rain = 0
KLO1 141721Z 15011KT 02/00 A3034 RMK A01 T00180000  RH  088%=      5-min Rain = 0
KLO1 141722Z 15010KT 02/M00 A3034 RMK A01 T00181001  RH  087%=      5-min Rain = 0
KLO1 141723Z 15011KT 02/M00 A3034 RMK A01 T00181001  RH  087%=      5-min Rain = 0
KLO1 141724Z 16010KT 02/M00 A3034 RMK A01 T00181001  RH  087%=      5-min Rain = 0
KLO1 141725Z 15009KT 02/M00 A3034 RMK A01 T00181001  RH  087%=      5-min Rain = 0
KLO1 141726Z 15008KT 02/M00 A3034 RMK A01 T00181001  RH  087%=      5-min Rain = 0
KLO1 141727Z 15007KT 02/M00 A3034 RMK A01 T00181002  RH  087%=      5-min Rain = 0
KLO1 141728Z 14010KT 02/00 A3034 RMK A01 T001800-0  RH  087%=      5-min Rain = 0
KLO1 141729Z 14010KT 02/00 A3034 RMK A01 T00190001  RH  088%=      5-min Rain = 0
KLO1 141730Z 14009KT 02/00 A3034 RMK A01 T00200000  RH  087%=      5-min Rain = 0
KLO1 141731Z 14009KT 02/00 A3034 RMK A01 T001900-0  RH  087%=      5-min Rain = 0
KLO1 141732Z 14009KT 02/00 A3033 RMK A01 T00200001  RH  087%=      5-min Rain = 0
KLO1 141733Z 15009KT 02/00 A3033 RMK A01 T00210000  RH  087%=      5-min Rain = 0
KLO1 141734Z 15011KT 02/00 A3033 RMK A01 T00210001  RH  087%=      5-min Rain = 0
KLO1 141735Z 15011KT 02/00 A3033 RMK A01 T00210001  RH  086%=      5-min Rain = 0
KLO1 141736Z 16011KT 02/00 A3033 RMK A01 T00210001  RH  086%=      5-min Rain = 0
KLO1 141737Z 16010KT 02/M00 A3033 RMK A01 T00211001  RH  086%=      5-min Rain = 0
KLO1 141738Z 16008KT 02/M00 A3033 RMK A01 T00211001  RH  086%=      5-min Rain = 0
KLO1 141739Z 17009KT 02/00 A3033 RMK A01 T002100-0  RH  086%=      5-min Rain = 0
KLO1 141740Z 17010KT 02/00 A3033 RMK A01 T00220001  RH  086%=      5-min Rain = 0
KLO1 141741Z 16008KT 02/00 A3033 RMK A01 T00220001  RH  086%=      5-min Rain = 0
KLO1 141742Z 16009KT 02/00 A3033 RMK A01 T00230001  RH  086%=      5-min Rain = 0
KLO1 141743Z 16010KT 02/00 A3033 RMK A01 T00240002  RH  086%=      5-min Rain = 0
KLO1 141744Z 17010KT 02/00 A3033 RMK A01 T00240003  RH  086%=      5-min Rain = 0
KLO1 141745Z 16010KT 03/00 A3033 RMK A01 T00250002  RH  085%=      5-min Rain = 0
KLO1 141746Z 17011KT 03/00 A3033 RMK A01 T00250003  RH  085%=      5-min Rain = 0
KLO1 141747Z 16010KT 03/00 A3033 RMK A01 T00260002  RH  085%=      5-min Rain = 0
KLO1 141748Z 16010KT 03/00 A3033 RMK A01 T00260002  RH  084%=      5-min Rain = 0
KLO1 141749Z 17009KT 03/00 A3033 RMK A01 T00260001  RH  084%=      5-min Rain = 0
KLO1 141750Z 17010KT 03/00 A3033 RMK A01 T00260001  RH  084%=      5-min Rain = 0
KLO1 141751Z 17009KT 03/00 A3033 RMK A01 T00250001  RH  084%=      5-min Rain = 0
KLO1 141752Z 16009KT 03/00 A3033 RMK A01 T00260001  RH  084%=      5-min Rain = 0
KLO1 141753Z 15009KT 03/00 A3033 RMK A01 T00260001  RH  084%=      5-min Rain = 0
KLO1 141754Z 16009KT 03/00 A3033 RMK A01 T00260001  RH  084%=      5-min Rain = 0
KLO1 141755Z 16008KT 03/00 A3033 RMK A01 T00270002  RH  084%=      5-min Rain = 0
KLO1 141756Z 16008KT 03/00 A3033 RMK A01 T00280004  RH  084%=      5-min Rain = 0
KLO1 141757Z 15010KT 03/00 A3033 RMK A01 T00300004  RH  084%=      5-min Rain = 0
KLO1 141758Z 15011KT 03/00 A3033 RMK A01 T00290002  RH  082%=      5-min Rain = 0
KLO1 141759Z 16010KT 03/00 A3033 RMK A01 T00280001  RH  083%=      5-min Rain = 0
KLO1 141800Z 17011KT 03/00 A3033 RMK A01 T00280002  RH  083%=      5-min Rain = 0
KLO1 141801Z 17010KT 03/00 A3033 RMK A01 T00280001  RH  083%=      5-min Rain = 0
KLO1 141802Z 16010KT 03/00 A3033 RMK A01 T00280002  RH  083%=      5-min Rain = 0
KLO1 141803Z 16010KT 03/00 A3033 RMK A01 T00280002  RH  083%=      5-min Rain = 0
KLO1 141804Z 16011KT 03/00 A3033 RMK A01 T00300004  RH  083%=      5-min Rain = 0
KLO1 141805Z 17011KT 03/00 A3033 RMK A01 T00310004  RH  083%=      5-min Rain = 0
KLO1 141806Z 17012KT 03/00 A3033 RMK A01 T00310004  RH  082%=      5-min Rain = 0
KLO1 141807Z 17011KT 03/00 A3033 RMK A01 T00310003  RH  082%=      5-min Rain = 0
KLO1 141808Z 17009KT 03/00 A3033 RMK A01 T00310003  RH  082%=      5-min Rain = 0
KLO1 141809Z 17008KT 03/00 A3033 RMK A01 T00310004  RH  082%=      5-min Rain = 0
KLO1 141810Z 16011KT 03/00 A3033 RMK A01 T00320004  RH  082%=      5-min Rain = 0
KLO1 141811Z 17010KT 03/00 A3033 RMK A01 T00320004  RH  082%=      5-min Rain = 0
KLO1 141812Z 17010KT 03/01 A3033 RMK A01 T00330005  RH  082%=      5-min Rain = 0
KLO1 141813Z 17011KT 03/01 A3033 RMK A01 T00330005  RH  081%=      5-min Rain = 0
KLO1 141814Z 17012KT 03/00 A3033 RMK A01 T00330004  RH  081%=      5-min Rain = 0
KLO1 141815Z 17011KT 03/00 A3033 RMK A01 T00330003  RH  081%=      5-min Rain = 0
KLO1 141816Z 17010KT 03/00 A3033 RMK A01 T00320003  RH  081%=      5-min Rain = 0
KLO1 141817Z 17010KT 03/00 A3033 RMK A01 T00320003  RH  081%=      5-min Rain = 0
KLO1 141818Z 18009KT 03/00 A3033 RMK A01 T00330003  RH  081%=      5-min Rain = 0
KLO1 141819Z 18011KT 03/01 A3033 RMK A01 T00340005  RH  082%=      5-min Rain = 0
KLO1 141820Z 18011KT 03/00 A3033 RMK A01 T00340004  RH  081%=      5-min Rain = 0
KLO1 141821Z 18010KT 03/00 A3033 RMK A01 T00330003  RH  081%=      5-min Rain = 0
KLO1 141822Z 18011KT 03/00 A3033 RMK A01 T00330003  RH  081%=      5-min Rain = 0
KLO1 141823Z 18009KT 03/00 A3033 RMK A01 T00330003  RH  081%=      5-min Rain = 0
KLO1 141824Z 17012KT 03/00 A3033 RMK A01 T00330004  RH  081%=      5-min Rain = 0
KLO1 141825Z 17010KT 03/00 A3033 RMK A01 T00330004  RH  081%=      5-min Rain = 0
KLO1 141826Z 17009KT 03/01 A3032 RMK A01 T00340005  RH  081%=      5-min Rain = 0
KLO1 141827Z 17010KT 04/01 A3032 RMK A01 T00350006  RH  081%=      5-min Rain = 0
KLO1 141828Z 17010KT 04/01 A3032 RMK A01 T00350005  RH  081%=      5-min Rain = 0
KLO1 141829Z 17013KT 04/01 A3032 RMK A01 T00350006  RH  081%=      5-min Rain = 0
KLO1 141830Z 17010KT 04/00 A3032 RMK A01 T00350004  RH  080%=      5-min Rain = 0
KLO1 141831Z 18010KT 04/01 A3032 RMK A01 T00350005  RH  081%=      5-min Rain = 0
KLO1 141832Z 18010KT 04/01 A3032 RMK A01 T00360007  RH  081%=      5-min Rain = 0
KLO1 141833Z 18011KT 04/01 A3032 RMK A01 T00360006  RH  081%=      5-min Rain = 0
KLO1 141834Z 18011KT 04/00 A3032 RMK A01 T00350004  RH  080%=      5-min Rain = 0
KLO1 141835Z 18012KT 04/00 A3032 RMK A01 T00350004  RH  080%=      5-min Rain = 0
KLO1 141836Z 18010KT 04/00 A3032 RMK A01 T00350004  RH  080%=      5-min Rain = 0
KLO1 141837Z 18009KT 04/00 A3032 RMK A01 T00350004  RH  080%=      5-min Rain = 0
KLO1 141838Z 19009KT 04/00 A3031 RMK A01 T00350004  RH  081%=      5-min Rain = 0
KLO1 141839Z 18009KT 04/01 A3031 RMK A01 T00360006  RH  081%=      5-min Rain = 0
KLO1 141840Z 18008KT 04/01 A3031 RMK A01 T00370007  RH  081%=      5-min Rain = 0
KLO1 141841Z 18009KT 04/01 A3031 RMK A01 T00380008  RH  081%=      5-min Rain = 0
KLO1 141842Z 18008KT 04/01 A3031 RMK A01 T00390009  RH  081%=      5-min Rain = 0
KLO1 141843Z 17010KT 04/01 A3031 RMK A01 T00390009  RH  080%=      5-min Rain = 0
KLO1 141844Z 18010KT 04/01 A3031 RMK A01 T00390008  RH  080%=      5-min Rain = 0
KLO1 141845Z 18011KT 04/01 A3031 RMK A01 T00390007  RH  080%=      5-min Rain = 0
KLO1 141846Z 17010KT 04/01 A3031 RMK A01 T00390007  RH  079%=      5-min Rain = 0
KLO1 141847Z 16009KT 04/01 A3031 RMK A01 T00390006  RH  079%=      5-min Rain = 0
KLO1 141848Z 17008KT 04/01 A3031 RMK A01 T00390007  RH  080%=      5-min Rain = 0
KLO1 141849Z 17011KT 04/01 A3031 RMK A01 T00400009  RH  080%=      5-min Rain = 0
KLO1 141850Z 18012KT 04/01 A3031 RMK A01 T00410009  RH  080%=      5-min Rain = 0
KLO1 141851Z 18011KT 04/01 A3031 RMK A01 T00410008  RH  079%=      5-min Rain = 0
KLO1 141852Z 18009KT 04/01 A3031 RMK A01 T00400007  RH  079%=      5-min Rain = 0
KLO1 141853Z 18010KT 04/01 A3031 RMK A01 T00400006  RH  079%=      5-min Rain = 0
KLO1 141854Z 17010KT 04/01 A3031 RMK A01 T00400008  RH  079%=      5-min Rain = 0
KLO1 141855Z 17009KT 04/01 A3031 RMK A01 T00410007  RH  079%=      5-min Rain = 0
KLO1 141856Z 18011KT 04/01 A3031 RMK A01 T00400007  RH  079%=      5-min Rain = 0
KLO1 141857Z 18012KT 04/01 A3031 RMK A01 T00410009  RH  079%=      5-min Rain = 0
KLO1 141858Z 19012KT 04/01 A3031 RMK A01 T00420008  RH  079%=      5-min Rain = 0
KLO1 141859Z 19010KT 04/01 A3031 RMK A01 T00420007  RH  078%=      5-min Rain = 0
KLO1 141900Z 19008KT 04/01 A303 RMK A01 T00410007  RH  078%=      5-min Rain = 0
KLO1 141901Z 19010KT 04/01 A303 RMK A01 T00410008  RH  079%=      5-min Rain = 0
KLO1 141902Z 18009KT 04/01 A303 RMK A01 T00420008  RH  079%=      5-min Rain = 0
KLO1 141903Z 19011KT 04/01 A303 RMK A01 T00420009  RH  079%=      5-min Rain = 0
KLO1 141904Z 18011KT 04/01 A303 RMK A01 T00430009  RH  079%=      5-min Rain = 0
KLO1 141905Z 18011KT 04/01 A303 RMK A01 T00440008  RH  078%=      5-min Rain = 0
KLO1 141906Z 18011KT 04/01 A303 RMK A01 T00440008  RH  078%=      5-min Rain = 0
KLO1 141907Z 17010KT 04/01 A303 RMK A01 T00430008  RH  078%=      5-min Rain = 0
KLO1 141908Z 17010KT 04/01 A303 RMK A01 T00440009  RH  078%=      5-min Rain = 0
KLO1 141909Z 16010KT 04/01 A303 RMK A01 T00440008  RH  077%=      5-min Rain = 0
KLO1 141910Z 17010KT 04/01 A303 RMK A01 T00440007  RH  077%=      5-min Rain = 0
KLO1 141911Z 17010KT 04/01 A303 RMK A01 T00440008  RH  077%=      5-min Rain = 0
KLO1 141912Z 17009KT 05/01 A303 RMK A01 T00460011  RH  078%=      5-min Rain = 0
KLO1 141913Z 16009KT 05/01 A303 RMK A01 T00470012  RH  078%=      5-min Rain = 0
KLO1 141914Z 17010KT 05/01 A3029 RMK A01 T00470010  RH  077%=      5-min Rain = 0
KLO1 141915Z 17009KT 05/01 A3029 RMK A01 T00460008  RH  076%=      5-min Rain = 0
KLO1 141916Z 18009KT 05/01 A3029 RMK A01 T00470010  RH  077%=      5-min Rain = 0
KLO1 141917Z 17008KT 05/01 A3029 RMK A01 T00470010  RH  077%=      5-min Rain = 0
KLO1 141918Z 17009KT 05/01 A3029 RMK A01 T00480010  RH  077%=      5-min Rain = 0
KLO1 141919Z 17009KT 05/01 A3029 RMK A01 T00480011  RH  076%=      5-min Rain = 0
KLO1 141920Z 18009KT 05/01 A3029 RMK A01 T00480009  RH  076%=      5-min Rain = 0
KLO1 141921Z 19009KT 05/01 A3029 RMK A01 T00470007  RH  075%=      5-min Rain = 0
KLO1 141922Z 17009KT 05/01 A3029 RMK A01 T00470009  RH  076%=      5-min Rain = 0
KLO1 141923Z 16012KT 05/01 A3029 RMK A01 T00490011  RH  076%=      5-min Rain = 0
KLO1 141924Z 17011KT 05/01 A3029 RMK A01 T00490009  RH  075%=      5-min Rain = 0
KLO1 141925Z 17009KT 05/01 A3029 RMK A01 T00480007  RH  075%=      5-min Rain = 0
KLO1 141926Z 17008KT 05/01 A3029 RMK A01 T00480008  RH  076%=      5-min Rain = 0
KLO1 141927Z 19008KT 05/01 A3029 RMK A01 T00480009  RH  076%=      5-min Rain = 0
KLO1 141928Z 19011KT 05/01 A3029 RMK A01 T00490009  RH  075%=      5-min Rain = 0
KLO1 141929Z 17012KT 05/01 A3029 RMK A01 T00490009  RH  075%=      5-min Rain = 0
KLO1 141930Z 17012KT 05/01 A3029 RMK A01 T00510011  RH  076%=      5-min Rain = 0
KLO1 141931Z 17009KT 05/01 A3028 RMK A01 T00520011  RH  074%=      5-min Rain = 0
KLO1 141932Z 17008KT 05/01 A3028 RMK A01 T00530013  RH  075%=      5-min Rain = 0
KLO1 141933Z 17009KT 06/02 A3028 RMK A01 T00560015  RH  075%=      5-min Rain = 0
KLO1 141934Z 17010KT 06/01 A3028 RMK A01 T00560012  RH  073%=      5-min Rain = 0
KLO1 141935Z 18008KT 05/01 A3028 RMK A01 T00540009  RH  073%=      5-min Rain = 0
KLO1 141936Z 18008KT 05/01 A3028 RMK A01 T00540012  RH  074%=      5-min Rain = 0
KLO1 141937Z 19012KT 06/01 A3028 RMK A01 T00560013  RH  074%=      5-min Rain = 0
KLO1 141938Z 20011KT 06/01 A3028 RMK A01 T00560012  RH  073%=      5-min Rain = 0
KLO1 141939Z 19009KT 06/01 A3028 RMK A01 T00560011  RH  073%=      5-min Rain = 0
KLO1 141940Z 19010KT 06/01 A3028 RMK A01 T00570012  RH  073%=      5-min Rain = 0
KLO1 141941Z 20010KT 06/01 A3028 RMK A01 T00570013  RH  073%=      5-min Rain = 0
KLO1 141942Z 18010KT 06/02 A3028 RMK A01 T00620020  RH  074%=      5-min Rain = 0
KLO1 141943Z 19012KT 06/02 A3028 RMK A01 T00630017  RH  072%=      5-min Rain = 0
KLO1 141944Z 19012KT 06/01 A3027 RMK A01 T00620014  RH  071%=      5-min Rain = 0
KLO1 141945Z 21009KT 06/01 A3027 RMK A01 T00590011  RH  071%=      5-min Rain = 0
KLO1 141946Z 20008KT 06/01 A3027 RMK A01 T00590013  RH  072%=      5-min Rain = 0
KLO1 141947Z 20009KT 06/01 A3027 RMK A01 T00590011  RH  071%=      5-min Rain = 0
KLO1 141948Z 20010KT 06/01 A3027 RMK A01 T00590012  RH  072%=      5-min Rain = 0
KLO1 141949Z 21008KT 06/01 A3027 RMK A01 T00610014  RH  072%=      5-min Rain = 0
KLO1 141950Z 20007KT 06/01 A3027 RMK A01 T00610013  RH  071%=      5-min Rain = 0
KLO1 141951Z 19008KT 06/02 A3027 RMK A01 T00610015  RH  072%=      5-min Rain = 0
KLO1 141952Z 19010KT 06/01 A3027 RMK A01 T00620014  RH  071%=      5-min Rain = 0
KLO1 141953Z 19009KT 06/01 A3027 RMK A01 T00620013  RH  071%=      5-min Rain = 0
KLO1 141954Z 18010KT 06/02 A3027 RMK A01 T00630015  RH  071%=      5-min Rain = 0
KLO1 141955Z 17008KT 06/01 A3027 RMK A01 T00640014  RH  071%=      5-min Rain = 0
KLO1 141956Z 17008KT 06/01 A3026 RMK A01 T00630012  RH  070%=      5-min Rain = 0
KLO1 141957Z 17007KT 06/01 A3026 RMK A01 T00620012  RH  070%=      5-min Rain = 0
KLO1 141958Z 19007KT 07/02 A3026 RMK A01 T00650016  RH  071%=      5-min Rain = 0
KLO1 141959Z 20008KT 07/02 A3026 RMK A01 T00670017  RH  071%=      5-min Rain = 0
KLO1 142000Z 19008KT 07/02 A3026 RMK A01 T00670015  RH  070%=      5-min Rain = 0
KLO1 142001Z 18011KT 07/02 A3026 RMK A01 T00690018  RH  070%=      5-min Rain = 0
KLO1 142002Z 20012KT 07/02 A3026 RMK A01 T00690016  RH  069%=      5-min Rain = 0
KLO1 142003Z 19011KT 07/02 A3026 RMK A01 T00690016  RH  069%=      5-min Rain = 0
KLO1 142004Z 17008KT 07/02 A3026 RMK A01 T00690015  RH  069%=      5-min Rain = 0
KLO1 142005Z 17005KT 07/01 A3026 RMK A01 T00690014  RH  068%=      5-min Rain = 0
KLO1 142006Z 18006KT 07/02 A3026 RMK A01 T00700017  RH  069%=      5-min Rain = 0
KLO1 142007Z 19006G11KT 07/02 A3026 RMK A01 T00710016  RH  068%=      5-min Rain = 0
KLO1 142008Z 19008KT 07/02 A3025 RMK A01 T00710016  RH  068%=      5-min Rain = 0
KLO1 142009Z 19008KT 07/02 A3025 RMK A01 T00720016  RH  068%=      5-min Rain = 0
KLO1 142010Z 20007KT 07/02 A3025 RMK A01 T00720015  RH  067%=      5-min Rain = 0
KLO1 142011Z 17012KT 08/02 A3025 RMK A01 T00750021  RH  069%=      5-min Rain = 0
KLO1 142012Z 17010KT 08/02 A3025 RMK A01 T00770020  RH  067%=      5-min Rain = 0
KLO1 142013Z 16009KT 08/02 A3025 RMK A01 T00770019  RH  066%=      5-min Rain = 0
KLO1 142014Z 17009KT 08/02 A3025 RMK A01 T00770018  RH  066%=      5-min Rain = 0
KLO1 142015Z 16005KT 08/02 A3025 RMK A01 T00770017  RH  066%=      5-min Rain = 0
KLO1 142016Z 16005KT 08/02 A3025 RMK A01 T00790020  RH  067%=      5-min Rain = 0
KLO1 142017Z 19011KT 08/02 A3025 RMK A01 T00800021  RH  066%=      5-min Rain = 0
KLO1 142018Z 20010KT 08/02 A3025 RMK A01 T00810022  RH  066%=      5-min Rain = 0
KLO1 142019Z 18012KT 08/02 A3025 RMK A01 T00830022  RH  065%=      5-min Rain = 0
KLO1 142020Z 18011KT 08/02 A3025 RMK A01 T00820019  RH  064%=      5-min Rain = 0
KLO1 142021Z 19012KT 08/02 A3025 RMK A01 T00830021  RH  065%=      5-min Rain = 0
KLO1 142022Z 18011KT 08/02 A3025 RMK A01 T00830019  RH  064%=      5-min Rain = 0
KLO1 142023Z 20008KT 08/02 A3025 RMK A01 T00820020  RH  065%=      5-min Rain = 0
KLO1 142024Z 21008KT 08/02 A3025 RMK A01 T00820019  RH  064%=      5-min Rain = 0
KLO1 142025Z 19007KT 08/02 A3025 RMK A01 T00800016  RH  064%=      5-min Rain = 0
KLO1 142026Z 18007KT 08/02 A3025 RMK A01 T00790018  RH  065%=      5-min Rain = 0
KLO1 142027Z 17007KT 08/02 A3024 RMK A01 T00800017  RH  065%=      5-min Rain = 0
KLO1 142028Z 17007KT 08/02 A3024 RMK A01 T00800019  RH  065%=      5-min Rain = 0
KLO1 142029Z 18009KT 08/02 A3024 RMK A01 T00820020  RH  065%=      5-min Rain = 0
KLO1 142030Z 17010KT 08/02 A3024 RMK A01 T00840022  RH  065%=      5-min Rain = 0
KLO1 142031Z 17009KT 09/02 A3024 RMK A01 T00860022  RH  064%=      5-min Rain = 0
KLO1 142032Z 17010KT 09/03 A3024 RMK A01 T00880025  RH  065%=      5-min Rain = 0
KLO1 142033Z 19009KT 09/03 A3024 RMK A01 T00910027  RH  064%=      5-min Rain = 0
KLO1 142034Z 17010KT 09/02 A3024 RMK A01 T00910024  RH  063%=      5-min Rain = 0
KLO1 142035Z 16010KT 09/02 A3024 RMK A01 T00920024  RH  063%=      5-min Rain = 0
KLO1 142036Z 16010KT 09/02 A3024 RMK A01 T00920023  RH  062%=      5-min Rain = 0
KLO1 142037Z 16011KT 09/02 A3024 RMK A01 T00920023  RH  062%=      5-min Rain = 0
KLO1 142038Z 16011KT 09/02 A3024 RMK A01 T00910022  RH  062%=      5-min Rain = 0
KLO1 142039Z 17008KT 09/02 A3024 RMK A01 T00900021  RH  062%=      5-min Rain = 0
KLO1 142040Z 17007KT 09/02 A3024 RMK A01 T00890022  RH  063%=      5-min Rain = 0
KLO1 142041Z 17011KT 09/02 A3024 RMK A01 T00910024  RH  063%=      5-min Rain = 0
KLO1 142042Z 16007KT 09/02 A3024 RMK A01 T00920024  RH  062%=      5-min Rain = 0
KLO1 142043Z 18009KT 09/03 A3024 RMK A01 T00930025  RH  062%=      5-min Rain = 0
KLO1 142044Z 18010KT 10/03 A3024 RMK A01 T00960028  RH  062%=      5-min Rain = 0
KLO1 142045Z 20010KT 10/02 A3024 RMK A01 T00960024  RH  061%=      5-min Rain = 0
KLO1 142046Z 20009KT 09/02 A3023 RMK A01 T00920020  RH  061%=      5-min Rain = 0
KLO1 142047Z 20009KT 09/02 A3023 RMK A01 T00910022  RH  062%=      5-min Rain = 0
KLO1 142048Z 18010KT 09/02 A3023 RMK A01 T00920024  RH  062%=      5-min Rain = 0
KLO1 142049Z 17010KT 09/02 A3023 RMK A01 T00930024  RH  062%=      5-min Rain = 0
KLO1 142050Z 18011KT 10/03 A3023 RMK A01 T00950026  RH  062%=      5-min Rain = 0
KLO1 142051Z 17012KT 10/03 A3023 RMK A01 T00970025  RH  061%=      5-min Rain = 0
KLO1 142052Z 18012KT 10/02 A3023 RMK A01 T00960024  RH  061%=      5-min Rain = 0
KLO1 142053Z 18012KT 10/02 A3023 RMK A01 T00960023  RH  061%=      5-min Rain = 0
KLO1 142054Z 18008KT 09/02 A3023 RMK A01 T00940020  RH  060%=      5-min Rain = 0
KLO1 142055Z 18008KT 09/02 A3023 RMK A01 T00920021  RH  061%=      5-min Rain = 0
KLO1 142056Z 20012KT 09/03 A3023 RMK A01 T00940025  RH  062%=      5-min Rain = 0
KLO1 142057Z 19012KT 10/03 A3023 RMK A01 T00960026  RH  061%=      5-min Rain = 0
KLO1 142058Z 18009KT 10/03 A3023 RMK A01 T00970026  RH  061%=      5-min Rain = 0
KLO1 142059Z 17008KT 10/03 A3023 RMK A01 T00990027  RH  061%=      5-min Rain = 0
KLO1 142100Z 16007KT 10/03 A3023 RMK A01 T01000027  RH  060%=      5-min Rain = 0
KLO1 142101Z 18010KT 10/03 A3023 RMK A01 T01000026  RH  060%=      5-min Rain = 0
KLO1 142102Z 17011KT 10/03 A3023 RMK A01 T01000025  RH  060%=      5-min Rain = 0
KLO1 142103Z 19010KT 10/03 A3023 RMK A01 T00990025  RH  060%=      5-min Rain = 0
KLO1 142104Z 18010KT 10/03 A3023 RMK A01 T00980025  RH  060%=      5-min Rain = 0
KLO1 142105Z 18008G13KT 10/02 A3023 RMK A01 T00970024  RH  060%=      5-min Rain = 0
KLO1 142106Z 19010KT 10/03 A3022 RMK A01 T00980026  RH  061%=      5-min Rain = 0
KLO1 142107Z 20010KT 10/02 A3022 RMK A01 T00980023  RH  060%=      5-min Rain = 0
KLO1 142108Z 18008KT 10/02 A3022 RMK A01 T00960021  RH  060%=      5-min Rain = 0
KLO1 142109Z 18010KT 10/02 A3022 RMK A01 T00950022  RH  060%=      5-min Rain = 0
KLO1 142110Z 19010KT 10/03 A3022 RMK A01 T00960025  RH  061%=      5-min Rain = 0
KLO1 142111Z 19012KT 10/03 A3022 RMK A01 T00990026  RH  061%=      5-min Rain = 0
KLO1 142112Z 19011KT 10/03 A3022 RMK A01 T00990025  RH  060%=      5-min Rain = 0
KLO1 142113Z 17010KT 10/03 A3022 RMK A01 T01010029  RH  061%=      5-min Rain = 0
KLO1 142114Z 16009KT 10/03 A3022 RMK A01 T01030028  RH  060%=      5-min Rain = 0
KLO1 142115Z 17008KT 10/03 A3022 RMK A01 T01040027  RH  059%=      5-min Rain = 0
KLO1 142116Z 18010KT 10/03 A3022 RMK A01 T01030026  RH  059%=      5-min Rain = 0
KLO1 142117Z 17011KT 10/03 A3022 RMK A01 T01040029  RH  060%=      5-min Rain = 0
KLO1 142118Z 17010KT 11/03 A3022 RMK A01 T01050027  RH  058%=      5-min Rain = 0
KLO1 142119Z 18009KT 10/02 A3022 RMK A01 T01030024  RH  058%=      5-min Rain = 0
KLO1 142120Z 18009KT 10/03 A3022 RMK A01 T01020025  RH  059%=      5-min Rain = 0
KLO1 142121Z 19006KT 10/03 A3022 RMK A01 T01020025  RH  059%=      5-min Rain = 0
KLO1 142122Z 17006KT 10/03 A3022 RMK A01 T01020025  RH  059%=      5-min Rain = 0
KLO1 142123Z 16009KT 10/03 A3022 RMK A01 T01030027  RH  059%=      5-min Rain = 0
KLO1 142124Z 16009KT 11/03 A3022 RMK A01 T01050027  RH  059%=      5-min Rain = 0
KLO1 142125Z 15009KT 11/03 A3022 RMK A01 T01050025  RH  058%=      5-min Rain = 0
KLO1 142126Z 17010KT 10/03 A3022 RMK A01 T01040025  RH  058%=      5-min Rain = 0
KLO1 142127Z 17013KT 11/03 A3022 RMK A01 T01050028  RH  059%=      5-min Rain = 0
KLO1 142128Z 16011KT 11/03 A3022 RMK A01 T01060026  RH  058%=      5-min Rain = 0
KLO1 142129Z 15011KT 11/03 A3021 RMK A01 T01060027  RH  058%=      5-min Rain = 0
KLO1 142130Z 15010KT 11/03 A3021 RMK A01 T01060025  RH  057%=      5-min Rain = 0
KLO1 142131Z 16011KT 11/03 A3021 RMK A01 T01050025  RH  057%=      5-min Rain = 0
KLO1 142132Z 17010KT 11/03 A3021 RMK A01 T01050027  RH  058%=      5-min Rain = 0
KLO1 142133Z 18013KT 11/03 A3021 RMK A01 T01070028  RH  058%=      5-min Rain = 0
KLO1 142134Z 17012KT 11/03 A3021 RMK A01 T01070026  RH  057%=      5-min Rain = 0
KLO1 142135Z 18011KT 11/03 A3021 RMK A01 T01070027  RH  058%=      5-min Rain = 0
KLO1 142136Z 17011KT 11/03 A3021 RMK A01 T01080027  RH  057%=      5-min Rain = 0
KLO1 142137Z 17010KT 11/03 A3021 RMK A01 T01090028  RH  057%=      5-min Rain = 0
KLO1 142138Z 17014KT 11/03 A3021 RMK A01 T01100027  RH  057%=      5-min Rain = 0
KLO1 142139Z 17012KT 11/03 A3021 RMK A01 T01100027  RH  057%=      5-min Rain = 0
KLO1 142140Z 18010KT 11/03 A3021 RMK A01 T01090027  RH  057%=      5-min Rain = 0
KLO1 142141Z 17010KT 11/03 A3021 RMK A01 T01090028  RH  057%=      5-min Rain = 0
KLO1 142142Z 17012KT 11/03 A3021 RMK A01 T01100027  RH  056%=      5-min Rain = 0
KLO1 142143Z 18012KT 11/03 A3021 RMK A01 T01090026  RH  056%=      5-min Rain = 0
KLO1 142144Z 16011G17KT 11/03 A3021 RMK A01 T01100027  RH  057%=      5-min Rain = 0
KLO1 142145Z 16012KT 11/03 A3021 RMK A01 T01120028  RH  056%=      5-min Rain = 0
KLO1 142146Z 16013KT 12/03 A3021 RMK A01 T01160032  RH  057%=      5-min Rain = 0
KLO1 142147Z 16012KT 12/03 A3021 RMK A01 T01160028  RH  055%=      5-min Rain = 0
KLO1 142148Z 15012KT 11/03 A3021 RMK A01 T01140027  RH  055%=      5-min Rain = 0
KLO1 142149Z 15011KT 11/03 A3021 RMK A01 T01140028  RH  055%=      5-min Rain = 0
KLO1 142150Z 15011KT 11/03 A302 RMK A01 T01140028  RH  055%=      5-min Rain = 0
KLO1 142151Z 15011KT 12/03 A302 RMK A01 T01150029  RH  056%=      5-min Rain = 0
KLO1 142152Z 15014KT 12/03 A302 RMK A01 T01160029  RH  055%=      5-min Rain = 0
KLO1 142153Z 16011KT 12/03 A302 RMK A01 T01150028  RH  055%=      5-min Rain = 0
KLO1 142154Z 17011KT 11/03 A302 RMK A01 T01140027  RH  055%=      5-min Rain = 0
KLO1 142155Z 16009KT 11/03 A302 RMK A01 T01140026  RH  055%=      5-min Rain = 0
KLO1 142156Z 16009KT 11/03 A302 RMK A01 T01130028  RH  056%=      5-min Rain = 0
KLO1 142157Z 16013KT 12/03 A302 RMK A01 T01160031  RH  056%=      5-min Rain = 0
KLO1 142158Z 17010KT 12/03 A302 RMK A01 T01170030  RH  055%=      5-min Rain = 0
KLO1 142159Z 17010KT 12/03 A302 RMK A01 T01170030  RH  055%=      5-min Rain = 0
KLO1 142200Z 16011KT 12/03 A302 RMK A01 T01180028  RH  054%=      5-min Rain = 0
KLO1 142201Z 16009KT 12/03 A302 RMK A01 T01170028  RH  054%=      5-min Rain = 0
KLO1 142202Z 16009KT 12/03 A3019 RMK A01 T01170028  RH  055%=      5-min Rain = 0
KLO1 142203Z 17009KT 12/03 A3019 RMK A01 T01160028  RH  055%=      5-min Rain = 0
KLO1 142204Z 17009KT 12/03 A3019 RMK A01 T01160028  RH  055%=      5-min Rain = 0
KLO1 142205Z 17010KT 12/03 A3019 RMK A01 T01170029  RH  055%=      5-min Rain = 0
KLO1 142206Z 18011KT 12/03 A3019 RMK A01 T01180029  RH  055%=      5-min Rain = 0
KLO1 142207Z 17012KT 12/03 A3019 RMK A01 T01180029  RH  054%=      5-min Rain = 0
KLO1 142208Z 17012KT 12/03 A3019 RMK A01 T01180029  RH  054%=      5-min Rain = 0
KLO1 142209Z 16012KT 12/03 A3019 RMK A01 T01190029  RH  054%=      5-min Rain = 0
KLO1 142210Z 17012KT 12/03 A3019 RMK A01 T01190030  RH  054%=      5-min Rain = 0
KLO1 142211Z 18011KT 12/03 A3019 RMK A01 T01200030  RH  054%=      5-min Rain = 0
KLO1 142212Z 17008KT 12/03 A3019 RMK A01 T01200029  RH  054%=      5-min Rain = 0
KLO1 142213Z 16009KT 12/03 A3019 RMK A01 T01200030  RH  054%=      5-min Rain = 0
KLO1 142214Z 17010KT 12/03 A3019 RMK A01 T01220032  RH  054%=      5-min Rain = 0
KLO1 142215Z 15012G17KT 12/03 A3019 RMK A01 T01230031  RH  053%=      5-min Rain = 0
KLO1 142216Z 16012KT 12/03 A3019 RMK A01 T01230030  RH  053%=      5-min Rain = 0
KLO1 142217Z 17014KT 12/03 A3018 RMK A01 T01230029  RH  053%=      5-min Rain = 0
KLO1 142218Z 17014KT 12/03 A3018 RMK A01 T01230029  RH  053%=      5-min Rain = 0
KLO1 142219Z 16013KT 12/03 A3018 RMK A01 T01220028  RH  053%=      5-min Rain = 0
KLO1 142220Z 15014KT 12/03 A3018 RMK A01 T01220029  RH  053%=      5-min Rain = 0
KLO1 142221Z 16013KT 12/03 A3018 RMK A01 T01220028  RH  053%=      5-min Rain = 0
KLO1 142222Z 15011KT 12/03 A3018 RMK A01 T01230029  RH  053%=      5-min Rain = 0
KLO1 142223Z 16013KT 12/03 A3018 RMK A01 T01230029  RH  053%=      5-min Rain = 0
KLO1 142224Z 16014KT 12/03 A3018 RMK A01 T01230029  RH  053%=      5-min Rain = 0
KLO1 142225Z 16012KT 12/03 A3018 RMK A01 T01230028  RH  052%=      5-min Rain = 0
KLO1 142226Z 16010KT 12/03 A3018 RMK A01 T01220028  RH  053%=      5-min Rain = 0
KLO1 142227Z 15010KT 12/03 A3018 RMK A01 T01230030  RH  053%=      5-min Rain = 0
KLO1 142228Z 15011KT 13/03 A3018 RMK A01 T01250031  RH  053%=      5-min Rain = 0
KLO1 142229Z 16013KT 13/03 A3018 RMK A01 T01260031  RH  052%=      5-min Rain = 0
KLO1 142230Z 17011KT 13/03 A3018 RMK A01 T01260030  RH  052%=      5-min Rain = 0
KLO1 142231Z 16011KT 13/03 A3018 RMK A01 T01260030  RH  052%=      5-min Rain = 0
KLO1 142232Z 16014KT 13/03 A3018 RMK A01 T01270031  RH  052%=      5-min Rain = 0
KLO1 142233Z 15013KT 13/03 A3018 RMK A01 T01270028  RH  051%=      5-min Rain = 0
KLO1 142234Z 15013KT 13/03 A3018 RMK A01 T01270028  RH  051%=      5-min Rain = 0
KLO1 142235Z 16012KT 13/03 A3018 RMK A01 T01270029  RH  051%=      5-min Rain = 0
KLO1 142236Z 16011KT 13/03 A3018 RMK A01 T01270028  RH  051%=      5-min Rain = 0
KLO1 142237Z 17011KT 13/03 A3018 RMK A01 T01270028  RH  051%=      5-min Rain = 0
KLO1 142238Z 15012KT 13/03 A3018 RMK A01 T01280029  RH  051%=      5-min Rain = 0
KLO1 142239Z 15015KT 13/03 A3018 RMK A01 T01290030  RH  051%=      5-min Rain = 0
KLO1 142240Z 15014KT 13/03 A3018 RMK A01 T01300028  RH  050%=      5-min Rain = 0
KLO1 142241Z 16012KT 13/03 A3018 RMK A01 T01300028  RH  050%=      5-min Rain = 0
KLO1 142242Z 16013KT 13/03 A3018 RMK A01 T01310030  RH  050%=      5-min Rain = 0
KLO1 142243Z 17016KT 13/03 A3018 RMK A01 T01330031  RH  050%=      5-min Rain = 0
KLO1 142244Z 17016KT 13/03 A3018 RMK A01 T01320028  RH  049%=      5-min Rain = 0
KLO1 142245Z 18015KT 13/03 A3018 RMK A01 T01320029  RH  050%=      5-min Rain = 0
KLO1 142246Z 18015KT 13/03 A3018 RMK A01 T01300028  RH  050%=      5-min Rain = 0
KLO1 142247Z 17015KT 13/03 A3017 RMK A01 T01300029  RH  050%=      5-min Rain = 0
KLO1 142248Z 17015KT 13/03 A3017 RMK A01 T01300028  RH  050%=      5-min Rain = 0
KLO1 142249Z 18017KT 13/03 A3017 RMK A01 T01300028  RH  050%=      5-min Rain = 0
KLO1 142250Z 17018KT 13/03 A3017 RMK A01 T01300026  RH  049%=      5-min Rain = 0
KLO1 142251Z 17015KT 13/03 A3017 RMK A01 T01300025  RH  049%=      5-min Rain = 0
KLO1 142252Z 17017KT 13/03 A3017 RMK A01 T01300026  RH  049%=      5-min Rain = 0
KLO1 142253Z 16018KT 13/03 A3017 RMK A01 T01310025  RH  048%=      5-min Rain = 0
KLO1 142254Z 17015KT 13/03 A3017 RMK A01 T01310025  RH  048%=      5-min Rain = 0
KLO1 142255Z 17016KT 13/02 A3017 RMK A01 T01300024  RH  048%=      5-min Rain = 0
KLO1 142256Z 16012KT 13/02 A3017 RMK A01 T01290024  RH  049%=      5-min Rain = 0
KLO1 142257Z 16013KT 13/03 A3017 RMK A01 T01290025  RH  049%=      5-min Rain = 0
KLO1 142258Z 17013KT 13/03 A3017 RMK A01 T01290026  RH  049%=      5-min Rain = 0
KLO1 142259Z 17012KT 13/03 A3018 RMK A01 T01300028  RH  050%=      5-min Rain = 0
KLO1 142300Z 17016KT 13/03 A3018 RMK A01 T01310029  RH  050%=      5-min Rain = 0
KLO1 142301Z 17016KT 13/03 A3018 RMK A01 T01310028  RH  050%=      5-min Rain = 0
KLO1 142302Z 16017KT 13/03 A3017 RMK A01 T01300026  RH  049%=      5-min Rain = 0
KLO1 142303Z 16017KT 13/03 A3017 RMK A01 T01290025  RH  049%=      5-min Rain = 0
KLO1 142304Z 17013KT 13/03 A3018 RMK A01 T01290027  RH  050%=      5-min Rain = 0
KLO1 142305Z 17014KT 13/03 A3018 RMK A01 T01300029  RH  050%=      5-min Rain = 0
KLO1 142306Z 17016KT 13/03 A3018 RMK A01 T01290029  RH  051%=      5-min Rain = 0
KLO1 142307Z 17017KT 13/03 A3018 RMK A01 T01290028  RH  050%=      5-min Rain = 0
KLO1 142308Z 17016KT 13/03 A3018 RMK A01 T01290027  RH  050%=      5-min Rain = 0
KLO1 142309Z 17016KT 13/03 A3018 RMK A01 T01280027  RH  050%=      5-min Rain = 0
KLO1 142310Z 17016KT 13/03 A3018 RMK A01 T01280028  RH  050%=      5-min Rain = 0
KLO1 142311Z 16016KT 13/03 A3018 RMK A01 T01280028  RH  051%=      5-min Rain = 0
KLO1 142312Z 16015KT 13/03 A3018 RMK A01 T01280028  RH  050%=      5-min Rain = 0
KLO1 142313Z 15015KT 13/03 A3018 RMK A01 T01280027  RH  050%=      5-min Rain = 0
KLO1 142314Z 17014KT 13/03 A3018 RMK A01 T01270028  RH  051%=      5-min Rain = 0
KLO1 142315Z 18013KT 13/03 A3018 RMK A01 T01270029  RH  051%=      5-min Rain = 0
KLO1 142316Z 17015KT 13/03 A3018 RMK A01 T01280029  RH  051%=      5-min Rain = 0
KLO1 142317Z 18016KT 13/03 A3018 RMK A01 T01280028  RH  051%=      5-min Rain = 0
KLO1 142318Z 17014KT 13/03 A3018 RMK A01 T01270028  RH  051%=      5-min Rain = 0
KLO1 142319Z 17014KT 13/03 A3018 RMK A01 T01260028  RH  051%=      5-min Rain = 0
KLO1 142320Z 17014KT 13/03 A3018 RMK A01 T01260028  RH  051%=      5-min Rain = 0
KLO1 142321Z 16015KT 13/03 A3018 RMK A01 T01260027  RH  051%=      5-min Rain = 0
KLO1 142322Z 17017KT 13/03 A3018 RMK A01 T01260027  RH  051%=      5-min Rain = 0
KLO1 142323Z 17016KT 13/03 A3018 RMK A01 T01260027  RH  051%=      5-min Rain = 0
KLO1 142324Z 17018KT 13/03 A3018 RMK A01 T01260028  RH  051%=      5-min Rain = 0
KLO1 142325Z 17017KT 13/03 A3018 RMK A01 T01250027  RH  051%=      5-min Rain = 0
KLO1 142326Z 16017KT 13/03 A3018 RMK A01 T01250027  RH  051%=      5-min Rain = 0
KLO1 142327Z 17016KT 13/03 A3018 RMK A01 T01250027  RH  052%=      5-min Rain = 0
KLO1 142328Z 16016KT 12/03 A3018 RMK A01 T01240028  RH  052%=      5-min Rain = 0
KLO1 142329Z 16015KT 12/03 A3018 RMK A01 T01240028  RH  052%=      5-min Rain = 0
KLO1 142330Z 16015KT 12/03 A3018 RMK A01 T01240029  RH  052%=      5-min Rain = 0
KLO1 142331Z 16014KT 12/03 A3017 RMK A01 T01240029  RH  052%=      5-min Rain = 0
KLO1 142332Z 16013KT 12/03 A3017 RMK A01 T01240029  RH  052%=      5-min Rain = 0
KLO1 142333Z 17016KT 12/03 A3017 RMK A01 T01240030  RH  053%=      5-min Rain = 0
KLO1 142334Z 17016KT 12/03 A3017 RMK A01 T01240028  RH  052%=      5-min Rain = 0
KLO1 142335Z 17015KT 12/03 A3017 RMK A01 T01240029  RH  052%=      5-min Rain = 0
KLO1 142336Z 16014KT 12/03 A3017 RMK A01 T01230029  RH  052%=      5-min Rain = 0
KLO1 142337Z 16013KT 12/03 A3017 RMK A01 T01230029  RH  053%=      5-min Rain = 0
KLO1 142338Z 15014KT 12/03 A3017 RMK A01 T01230028  RH  052%=      5-min Rain = 0
KLO1 142339Z 16015KT 12/03 A3017 RMK A01 T01230029  RH  053%=      5-min Rain = 0
KLO1 142340Z 16015KT 12/03 A3017 RMK A01 T01230029  RH  053%=      5-min Rain = 0
KLO1 142341Z 16015KT 12/03 A3017 RMK A01 T01230029  RH  053%=      5-min Rain = 0
KLO1 142342Z 17013KT 12/03 A3017 RMK A01 T01220028  RH  053%=      5-min Rain = 0
KLO1 142343Z 16016KT 12/03 A3017 RMK A01 T01220029  RH  053%=      5-min Rain = 0
KLO1 142344Z 17015KT 12/03 A3017 RMK A01 T01220029  RH  053%=      5-min Rain = 0
KLO1 142345Z 17016KT 12/03 A3017 RMK A01 T01220028  RH  053%=      5-min Rain = 0
KLO1 142346Z 17016KT 12/03 A3017 RMK A01 T01220028  RH  053%=      5-min Rain = 0
KLO1 142347Z 17015KT 12/03 A3017 RMK A01 T01210028  RH  053%=      5-min Rain = 0
KLO1 142348Z 16014KT 12/03 A3017 RMK A01 T01210029  RH  053%=      5-min Rain = 0
KLO1 142349Z 16015KT 12/03 A3017 RMK A01 T01200029  RH  053%=      5-min Rain = 0
KLO1 142350Z 16016KT 12/03 A3017 RMK A01 T01200028  RH  053%=      5-min Rain = 0
KLO1 142351Z 16015KT 12/03 A3017 RMK A01 T01200028  RH  053%=      5-min Rain = 0
KLO1 142352Z 16015KT 12/03 A3017 RMK A01 T01200028  RH  053%=      5-min Rain = 0
KLO1 142353Z 16015KT 12/03 A3017 RMK A01 T01200028  RH  053%=      5-min Rain = 0
KLO1 142354Z 16013KT 12/03 A3017 RMK A01 T01190028  RH  054%=      5-min Rain = 0
KLO1 142355Z 16014KT 12/03 A3017 RMK A01 T01190029  RH  054%=      5-min Rain = 0
KLO1 142356Z 16014KT 12/03 A3017 RMK A01 T01190028  RH  054%=      5-min Rain = 0
KLO1 142357Z 16012KT 12/03 A3017 RMK A01 T01180029  RH  054%=      5-min Rain = 0
KLO1 142358Z 16012KT 12/03 A3017 RMK A01 T01180030  RH  055%=      5-min Rain = 0
KLO1 142359Z 16014KT 12/03 A3017 RMK A01 T01180029  RH  055%=      5-min Rain = 0
KLO1 150000Z 15016KT 12/03 A3017 RMK A01 T01170029  RH  055%=      5-min Rain = 0
KLO1 150001Z 15017KT 12/03 A3017 RMK A01 T01170028  RH  054%=      5-min Rain = 0
KLO1 150002Z 15015KT 12/03 A3017 RMK A01 T01170028  RH  054%=      5-min Rain = 0
KLO1 150003Z 15013KT 12/03 A3017 RMK A01 T01160028  RH  055%=      5-min Rain = 0
KLO1 150004Z 15013KT 12/03 A3017 RMK A01 T01160028  RH  055%=      5-min Rain = 0
KLO1 150005Z 15013KT 12/03 A3017 RMK A01 T01150028  RH  055%=      5-min Rain = 0
KLO1 150006Z 15012KT 12/03 A3017 RMK A01 T01150028  RH  055%=      5-min Rain = 0
KLO1 150007Z 15013KT 12/03 A3017 RMK A01 T01150028  RH  055%=      5-min Rain = 0
KLO1 150008Z 16013KT 12/03 A3017 RMK A01 T01150029  RH  055%=      5-min Rain = 0
KLO1 150009Z 16015KT 11/03 A3017 RMK A01 T01140028  RH  055%=      5-min Rain = 0
KLO1 150010Z 16014KT 11/03 A3017 RMK A01 T01140027  RH  055%=      5-min Rain = 0
KLO1 150011Z 16014KT 11/03 A3017 RMK A01 T01140028  RH  055%=      5-min Rain = 0
KLO1 150012Z 16012KT 11/03 A3017 RMK A01 T01140028  RH  056%=      5-min Rain = 0
KLO1 150013Z 16013KT 11/03 A3017 RMK A01 T01130028  RH  056%=      5-min Rain = 0
KLO1 150014Z 16012KT 11/03 A3017 RMK A01 T01120028  RH  056%=      5-min Rain = 0
KLO1 150015Z 16013KT 11/03 A3017 RMK A01 T01120028  RH  056%=      5-min Rain = 0
KLO1 150016Z 16012KT 11/03 A3017 RMK A01 T01120028  RH  056%=      5-min Rain = 0
KLO1 150017Z 16012KT 11/03 A3017 RMK A01 T01110028  RH  056%=      5-min Rain = 0
KLO1 150018Z 16010KT 11/03 A3017 RMK A01 T01110028  RH  057%=      5-min Rain = 0
KLO1 150019Z 16011KT 11/03 A3017 RMK A01 T01110028  RH  057%=      5-min Rain = 0
KLO1 150020Z 16011KT 11/03 A3017 RMK A01 T01100028  RH  057%=      5-min Rain = 0
KLO1 150021Z 15011KT 11/03 A3016 RMK A01 T01090028  RH  057%=      5-min Rain = 0
KLO1 150022Z 16011KT 11/03 A3016 RMK A01 T01090028  RH  057%=      5-min Rain = 0
KLO1 150023Z 15011KT 11/03 A3016 RMK A01 T01090028  RH  058%=      5-min Rain = 0
KLO1 150024Z 15010KT 11/03 A3017 RMK A01 T01080028  RH  058%=      5-min Rain = 0
KLO1 150025Z 15009KT 11/03 A3017 RMK A01 T01070028  RH  058%=      5-min Rain = 0
KLO1 150026Z 16009KT 11/03 A3017 RMK A01 T01060028  RH  058%=      5-min Rain = 0
KLO1 150027Z 16009KT 11/03 A3017 RMK A01 T01060028  RH  059%=      5-min Rain = 0
KLO1 150028Z 16009KT 11/03 A3017 RMK A01 T01050028  RH  059%=      5-min Rain = 0
KLO1 150029Z 16009KT 11/03 A3017 RMK A01 T01050029  RH  059%=      5-min Rain = 0
KLO1 150030Z 16009KT 10/03 A3017 RMK A01 T01040028  RH  060%=      5-min Rain = 0
KLO1 150031Z 16009KT 10/03 A3017 RMK A01 T01030028  RH  060%=      5-min Rain = 0
KLO1 150032Z 16008KT 10/03 A3017 RMK A01 T01030029  RH  060%=      5-min Rain = 0
KLO1 150033Z 16008KT 10/03 A3017 RMK A01 T01020028  RH  060%=      5-min Rain = 0
KLO1 150034Z 16008KT 10/03 A3017 RMK A01 T01010028  RH  060%=      5-min Rain = 0
KLO1 150035Z 16008KT 10/03 A3017 RMK A01 T01000028  RH  061%=      5-min Rain = 0
KLO1 150036Z 16007KT 10/03 A3017 RMK A01 T01000028  RH  061%=      5-min Rain = 0
KLO1 150037Z 16007KT 10/03 A3017 RMK A01 T00990028  RH  061%=      5-min Rain = 0
KLO1 150038Z 16007KT 10/03 A3017 RMK A01 T00980028  RH  061%=      5-min Rain = 0
KLO1 150039Z 16007KT 10/03 A3017 RMK A01 T00970027  RH  062%=      5-min Rain = 0
KLO1 150040Z 16007KT 10/03 A3017 RMK A01 T00960027  RH  062%=      5-min Rain = 0
KLO1 150041Z 16007KT 10/03 A3017 RMK A01 T00950027  RH  063%=      5-min Rain = 0
KLO1 150042Z 16007KT 10/03 A3017 RMK A01 T00950028  RH  063%=      5-min Rain = 0
KLO1 150043Z 16007KT 10/03 A3017 RMK A01 T00950028  RH  063%=      5-min Rain = 0
KLO1 150044Z 16007KT 09/03 A3017 RMK A01 T00940027  RH  063%=      5-min Rain = 0
KLO1 150045Z 16007KT 09/03 A3017 RMK A01 T00930027  RH  063%=      5-min Rain = 0
KLO1 150046Z 16006KT 09/03 A3017 RMK A01 T00920026  RH  063%=      5-min Rain = 0
KLO1 150047Z 16006KT 09/03 A3017 RMK A01 T00920027  RH  064%=      5-min Rain = 0
KLO1 150048Z 16006KT 09/03 A3017 RMK A01 T00910026  RH  064%=      5-min Rain = 0
KLO1 150049Z 15006KT 09/03 A3017 RMK A01 T00900026  RH  064%=      5-min Rain = 0
KLO1 150050Z 16006KT 09/03 A3017 RMK A01 T00890026  RH  065%=      5-min Rain = 0
KLO1 150051Z 16006KT 09/03 A3017 RMK A01 T00880025  RH  065%=      5-min Rain = 0
KLO1 150052Z 16006KT 09/03 A3017 RMK A01 T00870025  RH  065%=      5-min Rain = 0
KLO1 150053Z 16006KT 09/03 A3017 RMK A01 T00860025  RH  065%=      5-min Rain = 0
KLO1 150054Z 16006KT 09/03 A3017 RMK A01 T00850025  RH  066%=      5-min Rain = 0
KLO1 150055Z 16006KT 09/02 A3017 RMK A01 T00850024  RH  066%=      5-min Rain = 0
KLO1 150056Z 16006KT 08/02 A3017 RMK A01 T00840024  RH  066%=      5-min Rain = 0
KLO1 150057Z 16006KT 08/02 A3017 RMK A01 T00830024  RH  066%=      5-min Rain = 0
KLO1 150058Z 16006KT 08/03 A3017 RMK A01 T00830025  RH  067%=      5-min Rain = 0
KLO1 150059Z 16006KT 08/02 A3017 RMK A01 T00820024  RH  067%=      5-min Rain = 0
KLO1 150100Z 16006KT 08/02 A3017 RMK A01 T00810023  RH  067%=      5-min Rain = 0
KLO1 150101Z 16006KT 08/02 A3017 RMK A01 T00810023  RH  067%=      5-min Rain = 0
KLO1 150102Z 16006KT 08/02 A3018 RMK A01 T00800023  RH  067%=      5-min Rain = 0
KLO1 150103Z 15005KT 08/02 A3018 RMK A01 T00790023  RH  067%=      5-min Rain = 0
KLO1 150104Z 15005KT 08/02 A3018 RMK A01 T00780022  RH  068%=      5-min Rain = 0
KLO1 150105Z 15005KT 08/02 A3018 RMK A01 T00770021  RH  068%=      5-min Rain = 0
KLO1 150106Z 14004KT 08/02 A3018 RMK A01 T00750021  RH  068%=      5-min Rain = 0
KLO1 150107Z 14004KT 07/02 A3017 RMK A01 T00740022  RH  069%=      5-min Rain = 0
KLO1 150108Z 14005KT 07/02 A3017 RMK A01 T00740023  RH  070%=      5-min Rain = 0
KLO1 150109Z 14005KT 07/02 A3017 RMK A01 T00740023  RH  070%=      5-min Rain = 0
KLO1 150110Z 14005KT 08/02 A3017 RMK A01 T00750023  RH  070%=      5-min Rain = 0
KLO1 150111Z 14005KT 07/02 A3017 RMK A01 T00740023  RH  070%=      5-min Rain = 0
KLO1 150112Z 14005KT 07/02 A3017 RMK A01 T00740024  RH  070%=      5-min Rain = 0
KLO1 150113Z 14005KT 07/02 A3017 RMK A01 T00740023  RH  070%=      5-min Rain = 0
KLO1 150114Z 15005KT 07/02 A3017 RMK A01 T00740023  RH  070%=      5-min Rain = 0
KLO1 150115Z 15005KT 07/02 A3017 RMK A01 T00730024  RH  071%=      5-min Rain = 0
KLO1 150116Z 14005KT 07/02 A3017 RMK A01 T00730023  RH  070%=      5-min Rain = 0
KLO1 150117Z 15005KT 07/02 A3017 RMK A01 T00720021  RH  070%=      5-min Rain = 0
KLO1 150118Z 15005KT 07/02 A3018 RMK A01 T00710021  RH  071%=      5-min Rain = 0
KLO1 150119Z 15005KT 07/02 A3018 RMK A01 T00700021  RH  071%=      5-min Rain = 0
KLO1 150120Z 15005KT 07/02 A3018 RMK A01 T00690020  RH  071%=      5-min Rain = 0
KLO1 150121Z 15005KT 07/02 A3018 RMK A01 T00690020  RH  071%=      5-min Rain = 0
KLO1 150122Z 15005KT 07/02 A3018 RMK A01 T00680020  RH  071%=      5-min Rain = 0
KLO1 150123Z 15005KT 07/02 A3018 RMK A01 T00680020  RH  072%=      5-min Rain = 0
KLO1 150124Z 14005KT 07/02 A3018 RMK A01 T00670020  RH  072%=      5-min Rain = 0
KLO1 150125Z 15005KT 07/02 A3018 RMK A01 T00670021  RH  073%=      5-min Rain = 0
KLO1 150126Z 15005KT 07/02 A3018 RMK A01 T00670022  RH  073%=      5-min Rain = 0
KLO1 150127Z 15005KT 07/02 A3018 RMK A01 T00670022  RH  073%=      5-min Rain = 0
KLO1 150128Z 14005KT 07/02 A3018 RMK A01 T00670022  RH  073%=      5-min Rain = 0
KLO1 150129Z 14005KT 07/02 A3018 RMK A01 T00680022  RH  073%=      5-min Rain = 0
KLO1 150130Z 14005KT 07/02 A3018 RMK A01 T00680022  RH  073%=      5-min Rain = 0
KLO1 150131Z 14005KT 07/02 A3018 RMK A01 T00680023  RH  073%=      5-min Rain = 0
KLO1 150132Z 14005KT 07/02 A3018 RMK A01 T00680023  RH  073%=      5-min Rain = 0
KLO1 150133Z 14005KT 07/02 A3018 RMK A01 T00670022  RH  073%=      5-min Rain = 0
KLO1 150134Z 14005KT 07/02 A3018 RMK A01 T00670022  RH  073%=      5-min Rain = 0
KLO1 150135Z 14005KT 07/02 A3019 RMK A01 T00670021  RH  073%=      5-min Rain = 0
KLO1 150136Z 14005KT 07/02 A3019 RMK A01 T00660021  RH  073%=      5-min Rain = 0
KLO1 150137Z 14005KT 07/02 A3019 RMK A01 T00660021  RH  073%=      5-min Rain = 0
KLO1 150138Z 14005KT 07/02 A3019 RMK A01 T00660021  RH  073%=      5-min Rain = 0
KLO1 150139Z 14005KT 07/02 A3019 RMK A01 T00650021  RH  073%=      5-min Rain = 0
KLO1 150140Z 15005KT 07/02 A3019 RMK A01 T00650022  RH  074%=      5-min Rain = 0
KLO1 150141Z 15005KT 07/02 A3019 RMK A01 T00650020  RH  073%=      5-min Rain = 0
KLO1 150142Z 15005KT 06/02 A3019 RMK A01 T00630019  RH  073%=      5-min Rain = 0
KLO1 150143Z 15005KT 06/02 A3019 RMK A01 T00620018  RH  073%=      5-min Rain = 0
KLO1 150144Z 15005KT 06/02 A3019 RMK A01 T00610018  RH  074%=      5-min Rain = 0
KLO1 150145Z 15005KT 06/02 A3019 RMK A01 T00600018  RH  074%=      5-min Rain = 0
KLO1 150146Z 15005KT 06/02 A3019 RMK A01 T00600018  RH  075%=      5-min Rain = 0
KLO1 150147Z 15006KT 06/02 A3019 RMK A01 T00590018  RH  075%=      5-min Rain = 0
KLO1 150148Z 15006KT 06/02 A3019 RMK A01 T00580017  RH  075%=      5-min Rain = 0
KLO1 150149Z 15006KT 06/02 A3019 RMK A01 T00570017  RH  075%=      5-min Rain = 0
KLO1 150150Z 15006KT 06/02 A3019 RMK A01 T00570017  RH  076%=      5-min Rain = 0
KLO1 150151Z 15006KT 06/02 A3019 RMK A01 T00560017  RH  076%=      5-min Rain = 0
KLO1 150152Z 15006KT 06/02 A3019 RMK A01 T00560017  RH  076%=      5-min Rain = 0
KLO1 150153Z 15006KT 06/02 A3019 RMK A01 T00550017  RH  076%=      5-min Rain = 0
KLO1 150154Z 15006KT 05/02 A3019 RMK A01 T00540017  RH  077%=      5-min Rain = 0
KLO1 150155Z 15006KT 05/02 A3019 RMK A01 T00540017  RH  077%=      5-min Rain = 0
KLO1 150156Z 15006KT 05/02 A3019 RMK A01 T00540018  RH  078%=      5-min Rain = 0
KLO1 150157Z 14007KT 05/02 A3019 RMK A01 T00530018  RH  078%=      5-min Rain = 0
KLO1 150158Z 14006KT 05/02 A3019 RMK A01 T00530018  RH  078%=      5-min Rain = 0
KLO1 150159Z 14007KT 05/02 A3019 RMK A01 T00530018  RH  078%=      5-min Rain = 0
KLO1 150200Z 14007KT 05/02 A3019 RMK A01 T00530018  RH  078%=      5-min Rain = 0
KLO1 150201Z 14007KT 05/02 A3019 RMK A01 T00530018  RH  078%=      5-min Rain = 0
KLO1 150202Z 14007KT 05/02 A3019 RMK A01 T00530018  RH  078%=      5-min Rain = 0
KLO1 150203Z 14006KT 05/02 A3019 RMK A01 T00530018  RH  078%=      5-min Rain = 0
KLO1 150204Z 14006KT 05/02 A3019 RMK A01 T00530018  RH  078%=      5-min Rain = 0
KLO1 150205Z 14006KT 05/02 A3019 RMK A01 T00530018  RH  078%=      5-min Rain = 0
KLO1 150206Z 15006KT 05/02 A3019 RMK A01 T00530019  RH  078%=      5-min Rain = 0
KLO1 150207Z 15005KT 05/02 A3019 RMK A01 T00530019  RH  079%=      5-min Rain = 0
KLO1 150208Z 15005KT 05/02 A3019 RMK A01 T00530019  RH  078%=      5-min Rain = 0
KLO1 150209Z 15005KT 05/02 A302 RMK A01 T00530019  RH  078%=      5-min Rain = 0
KLO1 150210Z 15005KT 05/02 A302 RMK A01 T00530019  RH  078%=      5-min Rain = 0
KLO1 150211Z 15005KT 05/02 A302 RMK A01 T00530018  RH  078%=      5-min Rain = 0
KLO1 150212Z 15005KT 05/02 A302 RMK A01 T00530018  RH  078%=      5-min Rain = 0
KLO1 150213Z 15005KT 05/02 A302 RMK A01 T00530018  RH  078%=      5-min Rain = 0
KLO1 150214Z 15006KT 05/02 A3019 RMK A01 T00520017  RH  078%=      5-min Rain = 0
KLO1 150215Z 15006KT 05/02 A3019 RMK A01 T00520017  RH  078%=      5-min Rain = 0
KLO1 150216Z 15006KT 05/02 A3019 RMK A01 T00510015  RH  078%=      5-min Rain = 0
KLO1 150217Z 15006KT 05/02 A3019 RMK A01 T00490015  RH  078%=      5-min Rain = 0
KLO1 150218Z 15006KT 05/02 A3019 RMK A01 T00490015  RH  079%=      5-min Rain = 0
KLO1 150219Z 15006KT 05/01 A3019 RMK A01 T00490014  RH  078%=      5-min Rain = 0
KLO1 150220Z 15005KT 05/01 A3019 RMK A01 T00470013  RH  078%=      5-min Rain = 0
KLO1 150221Z 15005KT 05/01 A3019 RMK A01 T00470012  RH  078%=      5-min Rain = 0
KLO1 150222Z 14005KT 05/01 A3019 RMK A01 T00460012  RH  079%=      5-min Rain = 0
KLO1 150223Z 14005KT 05/01 A3019 RMK A01 T00450012  RH  079%=      5-min Rain = 0
KLO1 150224Z 14006KT 05/01 A3019 RMK A01 T00450013  RH  080%=      5-min Rain = 0
KLO1 150225Z 14006KT 05/01 A3019 RMK A01 T00450014  RH  080%=      5-min Rain = 0
KLO1 150226Z 14007KT 05/01 A3019 RMK A01 T00450014  RH  080%=      5-min Rain = 0
KLO1 150227Z 15007KT 05/02 A3019 RMK A01 T00450015  RH  081%=      5-min Rain = 0
KLO1 150228Z 15007KT 05/02 A3019 RMK A01 T00460016  RH  081%=      5-min Rain = 0
KLO1 150229Z 15007KT 05/02 A3019 RMK A01 T00460016  RH  081%=      5-min Rain = 0
KLO1 150230Z 15007KT 05/02 A3019 RMK A01 T00460016  RH  081%=      5-min Rain = 0
KLO1 150231Z 14007KT 05/02 A3019 RMK A01 T00460016  RH  081%=      5-min Rain = 0
KLO1 150232Z 14007KT 05/02 A3019 RMK A01 T00450015  RH  080%=      5-min Rain = 0
KLO1 150233Z 14007KT 04/01 A3019 RMK A01 T00440012  RH  080%=      5-min Rain = 0
KLO1 150234Z 14006KT 04/01 A3019 RMK A01 T00430013  RH  081%=      5-min Rain = 0
KLO1 150235Z 14006KT 04/01 A3019 RMK A01 T00430013  RH  081%=      5-min Rain = 0
KLO1 150236Z 14006KT 04/01 A3019 RMK A01 T00420013  RH  081%=      5-min Rain = 0
KLO1 150237Z 14006KT 04/01 A3019 RMK A01 T00420012  RH  081%=      5-min Rain = 0
KLO1 150238Z 15006KT 04/01 A3019 RMK A01 T00410012  RH  081%=      5-min Rain = 0
KLO1 150239Z 15006KT 04/01 A3019 RMK A01 T00410012  RH  081%=      5-min Rain = 0
KLO1 150240Z 15006KT 04/01 A3019 RMK A01 T00400011  RH  081%=      5-min Rain = 0
KLO1 150241Z 15006KT 04/01 A3019 RMK A01 T00400011  RH  081%=      5-min Rain = 0
KLO1 150242Z 15006KT 04/01 A3019 RMK A01 T00400011  RH  082%=      5-min Rain = 0
KLO1 150243Z 15006KT 04/01 A3019 RMK A01 T00390011  RH  082%=      5-min Rain = 0
KLO1 150244Z 15006KT 04/01 A3019 RMK A01 T00390010  RH  082%=      5-min Rain = 0
KLO1 150245Z 15006KT 04/01 A3019 RMK A01 T00380010  RH  082%=      5-min Rain = 0
KLO1 150246Z 15006KT 04/01 A3019 RMK A01 T00380009  RH  082%=      5-min Rain = 0
KLO1 150247Z 15006KT 04/01 A3019 RMK A01 T00380010  RH  082%=      5-min Rain = 0
KLO1 150248Z 15006KT 04/01 A3019 RMK A01 T00380012  RH  083%=      5-min Rain = 0
KLO1 150249Z 15006KT 04/01 A3019 RMK A01 T00390013  RH  084%=      5-min Rain = 0
KLO1 150250Z 15006KT 04/01 A3019 RMK A01 T00380011  RH  083%=      5-min Rain = 0
KLO1 150251Z 15006KT 04/01 A3019 RMK A01 T00370010  RH  083%=      5-min Rain = 0
KLO1 150252Z 16006KT 04/01 A3019 RMK A01 T00370011  RH  083%=      5-min Rain = 0
KLO1 150253Z 16006KT 04/01 A3019 RMK A01 T00370011  RH  083%=      5-min Rain = 0
KLO1 150254Z 16006KT 04/01 A3019 RMK A01 T00370012  RH  084%=      5-min Rain = 0
KLO1 150255Z 16006KT 04/01 A3019 RMK A01 T00370012  RH  084%=      5-min Rain = 0
KLO1 150256Z 16006KT 04/01 A3019 RMK A01 T00370012  RH  084%=      5-min Rain = 0
KLO1 150257Z 16006KT 04/01 A3019 RMK A01 T00370013  RH  084%=      5-min Rain = 0
KLO1 150258Z 16006KT 04/01 A3019 RMK A01 T00370012  RH  084%=      5-min Rain = 0
KLO1 150259Z 16006KT 04/01 A3019 RMK A01 T00360010  RH  083%=      5-min Rain = 0
KLO1 150300Z 16006KT 03/01 A3019 RMK A01 T00340007  RH  082%=      5-min Rain = 0
KLO1 150301Z 16006KT 03/01 A3019 RMK A01 T00340007  RH  083%=      5-min Rain = 0
KLO1 150302Z 17006KT 03/01 A3019 RMK A01 T00340008  RH  083%=      5-min Rain = 0
KLO1 150303Z 16005KT 03/01 A3019 RMK A01 T00340009  RH  084%=      5-min Rain = 0
KLO1 150304Z 16005KT 03/01 A3019 RMK A01 T00340009  RH  084%=      5-min Rain = 0
KLO1 150305Z 16005KT 03/01 A3019 RMK A01 T00340009  RH  084%=      5-min Rain = 0
KLO1 150306Z 16005KT 03/01 A3019 RMK A01 T00340009  RH  084%=      5-min Rain = 0
KLO1 150307Z 16005KT 03/01 A3019 RMK A01 T00340009  RH  084%=      5-min Rain = 0
KLO1 150308Z 16005KT 03/01 A3019 RMK A01 T00340009  RH  084%=      5-min Rain = 0
KLO1 150309Z 16006KT 03/01 A3019 RMK A01 T00340010  RH  084%=      5-min Rain = 0
KLO1 150310Z 16006KT 03/01 A3019 RMK A01 T00340010  RH  084%=      5-min Rain = 0
KLO1 150311Z 16006KT 03/01 A3019 RMK A01 T00340010  RH  084%=      5-min Rain = 0
KLO1 150312Z 16007KT 03/01 A3019 RMK A01 T00330009  RH  084%=      5-min Rain = 0
KLO1 150313Z 16007KT 03/01 A3019 RMK A01 T00330010  RH  085%=      5-min Rain = 0
KLO1 150314Z 16008KT 03/01 A3019 RMK A01 T00340011  RH  085%=      5-min Rain = 0
KLO1 150315Z 16008KT 04/01 A3019 RMK A01 T00360014  RH  086%=      5-min Rain = 0
KLO1 150316Z 16008KT 04/02 A3019 RMK A01 T00390017  RH  086%=      5-min Rain = 0
KLO1 150317Z 16008KT 04/02 A3019 RMK A01 T00410019  RH  086%=      5-min Rain = 0
KLO1 150318Z 16008KT 04/02 A3019 RMK A01 T00420020  RH  085%=      5-min Rain = 0
KLO1 150319Z 16008KT 04/02 A3019 RMK A01 T00430020  RH  085%=      5-min Rain = 0
KLO1 150320Z 16008KT 04/02 A3019 RMK A01 T00440019  RH  084%=      5-min Rain = 0
KLO1 150321Z 16008KT 04/02 A3019 RMK A01 T00440019  RH  084%=      5-min Rain = 0
KLO1 150322Z 16008KT 04/02 A3019 RMK A01 T00440019  RH  084%=      5-min Rain = 0
KLO1 150323Z 16008KT 04/02 A3019 RMK A01 T00440019  RH  084%=      5-min Rain = 0
KLO1 150324Z 16007KT 05/02 A3019 RMK A01 T00450020  RH  084%=      5-min Rain = 0
KLO1 150325Z 16007KT 05/02 A3019 RMK A01 T00450020  RH  083%=      5-min Rain = 0
KLO1 150326Z 16007KT 05/02 A3019 RMK A01 T00460019  RH  083%=      5-min Rain = 0
KLO1 150327Z 16007KT 05/02 A3019 RMK A01 T00460019  RH  083%=      5-min Rain = 0
KLO1 150328Z 16007KT 05/02 A3019 RMK A01 T00460019  RH  083%=      5-min Rain = 0
KLO1 150329Z 16006KT 05/02 A3019 RMK A01 T00460019  RH  083%=      5-min Rain = 0
KLO1 150330Z 17006KT 05/02 A3019 RMK A01 T00460020  RH  083%=      5-min Rain = 0
KLO1 150331Z 17006KT 05/02 A3019 RMK A01 T00460019  RH  083%=      5-min Rain = 0
KLO1 150332Z 17006KT 05/02 A3019 RMK A01 T00470020  RH  083%=      5-min Rain = 0
KLO1 150333Z 17005KT 05/02 A3019 RMK A01 T00480021  RH  083%=      5-min Rain = 0
KLO1 150334Z 17006KT 05/02 A3019 RMK A01 T00490022  RH  083%=      5-min Rain = 0
KLO1 150335Z 17006KT 05/02 A3019 RMK A01 T00490022  RH  082%=      5-min Rain = 0
KLO1 150336Z 17006KT 05/02 A3019 RMK A01 T00490021  RH  082%=      5-min Rain = 0
KLO1 150337Z 17006KT 05/02 A3019 RMK A01 T00490021  RH  082%=      5-min Rain = 0
KLO1 150338Z 17006KT 05/02 A3019 RMK A01 T00490020  RH  081%=      5-min Rain = 0
KLO1 150339Z 17006KT 05/02 A3019 RMK A01 T00490019  RH  081%=      5-min Rain = 0
KLO1 150340Z 17006KT 05/02 A3019 RMK A01 T00490020  RH  081%=      5-min Rain = 0
KLO1 150341Z 17006KT 05/02 A3019 RMK A01 T00490019  RH  081%=      5-min Rain = 0
KLO1 150342Z 17006KT 05/02 A3019 RMK A01 T00480018  RH  081%=      5-min Rain = 0
KLO1 150343Z 17006KT 05/02 A3019 RMK A01 T00470017  RH  081%=      5-min Rain = 0
KLO1 150344Z 17006KT 05/02 A3019 RMK A01 T00460016  RH  081%=      5-min Rain = 0
KLO1 150345Z 17006KT 05/02 A3019 RMK A01 T00450015  RH  081%=      5-min Rain = 0
KLO1 150346Z 17006KT 05/02 A3019 RMK A01 T00450016  RH  082%=      5-min Rain = 0
KLO1 150347Z 17006KT 05/02 A3019 RMK A01 T00450017  RH  082%=      5-min Rain = 0
KLO1 150348Z 17007KT 05/02 A3019 RMK A01 T00450017  RH  082%=      5-min Rain = 0
KLO1 150349Z 17006KT 05/02 A3019 RMK A01 T00450016  RH  082%=      5-min Rain = 0
KLO1 150350Z 17006KT 04/02 A3019 RMK A01 T00440016  RH  082%=      5-min Rain = 0
KLO1 150351Z 17006KT 04/02 A3019 RMK A01 T00430016  RH  082%=      5-min Rain = 0
KLO1 150352Z 17006KT 04/02 A3019 RMK A01 T00430016  RH  082%=      5-min Rain = 0
KLO1 150353Z 17007KT 04/01 A3019 RMK A01 T00420014  RH  082%=      5-min Rain = 0
KLO1 150354Z 17006KT 04/02 A3019 RMK A01 T00420016  RH  083%=      5-min Rain = 0
KLO1 150355Z 18006KT 04/02 A3019 RMK A01 T00420016  RH  083%=      5-min Rain = 0
KLO1 150356Z 18006KT 04/02 A3019 RMK A01 T00430016  RH  083%=      5-min Rain = 0
KLO1 150357Z 18006KT 04/02 A3019 RMK A01 T00430017  RH  083%=      5-min Rain = 0
KLO1 150358Z 18005KT 04/02 A3019 RMK A01 T00430017  RH  083%=      5-min Rain = 0
KLO1 150359Z 18005KT 04/02 A3019 RMK A01 T00430017  RH  083%=      5-min Rain = 0
KLO1 150400Z 18005KT 04/02 A3019 RMK A01 T00430016  RH  083%=      5-min Rain = 0
KLO1 150401Z 18004KT 04/02 A3019 RMK A01 T00430016  RH  083%=      5-min Rain = 0
KLO1 150402Z 18005KT 04/02 A3019 RMK A01 T00430017  RH  083%=      5-min Rain = 0
KLO1 150403Z 18005KT 04/02 A3019 RMK A01 T00440019  RH  084%=      5-min Rain = 0
KLO1 150404Z 18005KT 05/02 A3019 RMK A01 T00450018  RH  083%=      5-min Rain = 0
KLO1 150405Z 18005KT 04/02 A3019 RMK A01 T00440018  RH  083%=      5-min Rain = 0
KLO1 150406Z 19006KT 04/02 A3019 RMK A01 T00440018  RH  083%=      5-min Rain = 0
KLO1 150407Z 18006KT 05/02 A3019 RMK A01 T00450019  RH  083%=      5-min Rain = 0
KLO1 150408Z 18007KT 05/02 A3019 RMK A01 T00460020  RH  083%=      5-min Rain = 0
KLO1 150409Z 18008KT 05/02 A3019 RMK A01 T00480022  RH  083%=      5-min Rain = 0
KLO1 150410Z 18008KT 05/02 A3019 RMK A01 T00490022  RH  082%=      5-min Rain = 0
KLO1 150411Z 18007KT 05/02 A3019 RMK A01 T00500022  RH  082%=      5-min Rain = 0
KLO1 150412Z 17008KT 05/02 A3019 RMK A01 T00510021  RH  081%=      5-min Rain = 0
KLO1 150413Z 17007G12KT 05/02 A3019 RMK A01 T00510021  RH  081%=      5-min Rain = 0
KLO1 150414Z 17008KT 05/02 A3018 RMK A01 T00520022  RH  081%=      5-min Rain = 0
KLO1 150415Z 17009KT 05/02 A3018 RMK A01 T00540024  RH  081%=      5-min Rain = 0
KLO1 150416Z 17009KT 06/02 A3018 RMK A01 T00550024  RH  081%=      5-min Rain = 0
KLO1 150417Z 17009KT 06/03 A3018 RMK A01 T00560025  RH  080%=      5-min Rain = 0
KLO1 150418Z 17011KT 06/03 A3018 RMK A01 T00570026  RH  080%=      5-min Rain = 0
KLO1 150419Z 17011KT 06/03 A3018 RMK A01 T00590027  RH  080%=      5-min Rain = 0
KLO1 150420Z 17011KT 06/03 A3018 RMK A01 T00610027  RH  079%=      5-min Rain = 0
KLO1 150421Z 17010KT 06/03 A3018 RMK A01 T00620027  RH  078%=      5-min Rain = 0
KLO1 150422Z 17011KT 06/03 A3018 RMK A01 T00620027  RH  078%=      5-min Rain = 0
KLO1 150423Z 17011KT 06/03 A3018 RMK A01 T00630027  RH  078%=      5-min Rain = 0
KLO1 150424Z 17010KT 06/03 A3018 RMK A01 T00630027  RH  078%=      5-min Rain = 0
KLO1 150425Z 17011KT 06/03 A3018 RMK A01 T00630027  RH  077%=      5-min Rain = 0
KLO1 150426Z 17012KT 06/03 A3018 RMK A01 T00640027  RH  077%=      5-min Rain = 0
KLO1 150427Z 17011KT 07/03 A3018 RMK A01 T00650027  RH  077%=      5-min Rain = 0
KLO1 150428Z 17010KT 07/03 A3018 RMK A01 T00650027  RH  076%=      5-min Rain = 0
KLO1 150429Z 17011KT 06/03 A3018 RMK A01 T00640026  RH  076%=      5-min Rain = 0
KLO1 150430Z 17011KT 06/03 A3018 RMK A01 T00640026  RH  077%=      5-min Rain = 0
KLO1 150431Z 17012KT 07/03 A3018 RMK A01 T00650027  RH  077%=      5-min Rain = 0
KLO1 150432Z 17013KT 07/03 A3018 RMK A01 T00660027  RH  076%=      5-min Rain = 0
KLO1 150433Z 17012KT 07/03 A3018 RMK A01 T00660027  RH  076%=      5-min Rain = 0
KLO1 150434Z 17012KT 07/03 A3018 RMK A01 T00670027  RH  076%=      5-min Rain = 0
KLO1 150435Z 17012KT 07/03 A3018 RMK A01 T00670027  RH  076%=      5-min Rain = 0
KLO1 150436Z 17013KT 07/03 A3018 RMK A01 T00660026  RH  076%=      5-min Rain = 0
KLO1 150437Z 17014KT 07/03 A3018 RMK A01 T00660026  RH  076%=      5-min Rain = 0
KLO1 150438Z 17013KT 07/03 A3018 RMK A01 T00660026  RH  076%=      5-min Rain = 0
KLO1 150439Z 17013KT 07/03 A3018 RMK A01 T00670027  RH  075%=      5-min Rain = 0
KLO1 150440Z 17013KT 07/03 A3018 RMK A01 T00660026  RH  076%=      5-min Rain = 0
KLO1 150441Z 17014KT 07/03 A3018 RMK A01 T00660026  RH  076%=      5-min Rain = 0
KLO1 150442Z 17015KT 07/03 A3018 RMK A01 T00670027  RH  076%=      5-min Rain = 0
KLO1 150443Z 17014KT 07/03 A3018 RMK A01 T00680027  RH  075%=      5-min Rain = 0
KLO1 150444Z 17015KT 07/03 A3018 RMK A01 T00680026  RH  075%=      5-min Rain = 0
KLO1 150445Z 17014KT 07/03 A3018 RMK A01 T00670026  RH  075%=      5-min Rain = 0
KLO1 150446Z 17014KT 07/03 A3018 RMK A01 T00670026  RH  075%=      5-min Rain = 0
KLO1 150447Z 17014KT 07/03 A3018 RMK A01 T00670026  RH  075%=      5-min Rain = 0
KLO1 150448Z 17014KT 07/03 A3018 RMK A01 T00670026  RH  075%=      5-min Rain = 0
KLO1 150449Z 17013KT 07/03 A3018 RMK A01 T00670026  RH  075%=      5-min Rain = 0
KLO1 150450Z 17013KT 07/03 A3018 RMK A01 T00670026  RH  075%=      5-min Rain = 0
KLO1 150451Z 17014KT 07/03 A3018 RMK A01 T00670026  RH  075%=      5-min Rain = 0
KLO1 150452Z 17013KT 07/03 A3018 RMK A01 T00670026  RH  075%=      5-min Rain = 0
KLO1 150453Z 17014KT 07/03 A3018 RMK A01 T00670026  RH  075%=      5-min Rain = 0
KLO1 150454Z 17014KT 07/03 A3018 RMK A01 T00670026  RH  075%=      5-min Rain = 0
KLO1 150455Z 17014KT 07/03 A3018 RMK A01 T00670026  RH  075%=      5-min Rain = 0
KLO1 150456Z 17014KT 07/03 A3018 RMK A01 T00670026  RH  075%=      5-min Rain = 0
KLO1 150457Z 17015KT 07/03 A3018 RMK A01 T00680026  RH  075%=      5-min Rain = 0
KLO1 150458Z 16013KT 07/03 A3017 RMK A01 T00670025  RH  075%=      5-min Rain = 0
KLO1 150459Z 17014KT 07/03 A3017 RMK A01 T00670025  RH  075%=      5-min Rain = 0
KLO1 150500Z 17013KT 07/03 A3018 RMK A01 T00670025  RH  075%=      5-min Rain = 0
KLO1 150501Z 17014KT 07/03 A3018 RMK A01 T00660025  RH  075%=      5-min Rain = 0
KLO1 150502Z 17013KT 07/03 A3017 RMK A01 T00660025  RH  075%=      5-min Rain = 0
KLO1 150503Z 17013KT 07/03 A3017 RMK A01 T00660025  RH  075%=      5-min Rain = 0
KLO1 150504Z 17013KT 07/03 A3017 RMK A01 T00660025  RH  075%=      5-min Rain = 0
KLO1 150505Z 17014KT 07/03 A3017 RMK A01 T00660025  RH  075%=      5-min Rain = 0
KLO1 150506Z 17013KT 07/03 A3017 RMK A01 T00660025  RH  075%=      5-min Rain = 0
KLO1 150507Z 17014KT 07/03 A3017 RMK A01 T00660025  RH  075%=      5-min Rain = 0
KLO1 150508Z 17013KT 07/03 A3017 RMK A01 T00660025  RH  075%=      5-min Rain = 0
KLO1 150509Z 17016KT 07/03 A3017 RMK A01 T00660025  RH  075%=      5-min Rain = 0
KLO1 150510Z 17016KT 07/03 A3017 RMK A01 T00660025  RH  075%=      5-min Rain = 0
KLO1 150511Z 17015KT 07/03 A3017 RMK A01 T00670025  RH  074%=      5-min Rain = 0
KLO1 150512Z 17015KT 07/03 A3017 RMK A01 T00670025  RH  074%=      5-min Rain = 0
KLO1 150513Z 17014KT 07/03 A3017 RMK A01 T00670025  RH  074%=      5-min Rain = 0
KLO1 150514Z 17014KT 07/02 A3017 RMK A01 T00670024  RH  074%=      5-min Rain = 0
KLO1 150515Z 17014KT 07/02 A3017 RMK A01 T00660024  RH  075%=      5-min Rain = 0
KLO1 150516Z 17016KT 07/02 A3017 RMK A01 T00660024  RH  075%=      5-min Rain = 0
KLO1 150517Z 17015KT 07/02 A3016 RMK A01 T00660024  RH  075%=      5-min Rain = 0
KLO1 150518Z 17014KT 07/02 A3017 RMK A01 T00660024  RH  075%=      5-min Rain = 0
KLO1 150519Z 17017KT 07/02 A3016 RMK A01 T00660024  RH  075%=      5-min Rain = 0
KLO1 150520Z 17015KT 07/02 A3016 RMK A01 T00670024  RH  074%=      5-min Rain = 0
KLO1 150521Z 17015KT 07/02 A3016 RMK A01 T00660024  RH  074%=      5-min Rain = 0
KLO1 150522Z 17016KT 07/02 A3016 RMK A01 T00660024  RH  074%=      5-min Rain = 0
KLO1 150523Z 17014KT 07/02 A3016 RMK A01 T00660024  RH  074%=      5-min Rain = 0
KLO1 150524Z 17014KT 07/02 A3016 RMK A01 T00650024  RH  075%=      5-min Rain = 0
KLO1 150525Z 17013KT 07/02 A3016 RMK A01 T00650023  RH  075%=      5-min Rain = 0
KLO1 150526Z 17013KT 06/02 A3016 RMK A01 T00640023  RH  075%=      5-min Rain = 0
KLO1 150527Z 17013KT 06/02 A3016 RMK A01 T00640023  RH  075%=      5-min Rain = 0
KLO1 150528Z 17014KT 06/02 A3016 RMK A01 T00630023  RH  075%=      5-min Rain = 0
KLO1 150529Z 17014KT 06/02 A3017 RMK A01 T00640024  RH  075%=      5-min Rain = 0
KLO1 150530Z 17013KT 06/02 A3017 RMK A01 T00640024  RH  075%=      5-min Rain = 0
KLO1 150531Z 17014KT 06/02 A3017 RMK A01 T00640023  RH  075%=      5-min Rain = 0
KLO1 150532Z 18014KT 06/02 A3017 RMK A01 T00630023  RH  075%=      5-min Rain = 0
KLO1 150533Z 18014KT 06/02 A3017 RMK A01 T00640023  RH  075%=      5-min Rain = 0
KLO1 150534Z 18015KT 06/02 A3017 RMK A01 T00630023  RH  075%=      5-min Rain = 0
KLO1 150535Z 18013KT 06/02 A3017 RMK A01 T00630023  RH  075%=      5-min Rain = 0
KLO1 150536Z 18012KT 06/02 A3017 RMK A01 T00630023  RH  075%=      5-min Rain = 0
KLO1 150537Z 18014KT 06/02 A3017 RMK A01 T00630022  RH  075%=      5-min Rain = 0
KLO1 150538Z 18013KT 06/02 A3017 RMK A01 T00630023  RH  075%=      5-min Rain = 0
KLO1 150539Z 18013KT 06/02 A3017 RMK A01 T00630023  RH  075%=      5-min Rain = 0
KLO1 150540Z 18012KT 06/02 A3017 RMK A01 T00630022  RH  075%=      5-min Rain = 0
KLO1 150541Z 18012KT 06/02 A3017 RMK A01 T00610022  RH  076%=      5-min Rain = 0
KLO1 150542Z 18012KT 06/02 A3017 RMK A01 T00610022  RH  076%=      5-min Rain = 0
KLO1 150543Z 18012KT 06/02 A3017 RMK A01 T00610022  RH  076%=      5-min Rain = 0
KLO1 150544Z 18013KT 06/02 A3017 RMK A01 T00610022  RH  076%=      5-min Rain = 0
KLO1 150545Z 18013KT 06/02 A3017 RMK A01 T00610022  RH  076%=      5-min Rain = 0
KLO1 150546Z 18013KT 06/02 A3017 RMK A01 T00610022  RH  076%=      5-min Rain = 0
KLO1 150547Z 18012KT 06/02 A3017 RMK A01 T00610022  RH  076%=      5-min Rain = 0
KLO1 150548Z 18013KT 06/02 A3017 RMK A01 T00610021  RH  076%=      5-min Rain = 0
KLO1 150549Z 18012KT 06/02 A3017 RMK A01 T00600021  RH  076%=      5-min Rain = 0
KLO1 150550Z 18012KT 06/02 A3017 RMK A01 T00600021  RH  076%=      5-min Rain = 0
KLO1 150551Z 18012KT 06/02 A3017 RMK A01 T00600021  RH  076%=      5-min Rain = 0
KLO1 150552Z 18012KT 06/02 A3017 RMK A01 T00600021  RH  076%=      5-min Rain = 0
KLO1 150553Z 18012KT 06/02 A3017 RMK A01 T00590021  RH  076%=      5-min Rain = 0
KLO1 150554Z 18012KT 06/02 A3017 RMK A01 T00600021  RH  076%=      5-min Rain = 0
KLO1 150555Z 18011KT 06/02 A3017 RMK A01 T00600021  RH  076%=      5-min Rain = 0
KLO1 150556Z 18011KT 06/02 A3017 RMK A01 T00590021  RH  076%=      5-min Rain = 0
KLO1 150557Z 18011KT 06/02 A3016 RMK A01 T00590021  RH  077%=      5-min Rain = 0
KLO1 150558Z 18011KT 06/02 A3016 RMK A01 T00580020  RH  076%=      5-min Rain = 0
KLO1 150559Z 18011KT 06/02 A3016 RMK A01 T00570020  RH  077%=      5-min Rain = 0

Page generated in 0.0725 seconds.